Wetterdaten: Mittwoch, 31.01.2018
Datum Zeit Temp. Aussen Temp. o. S. +5cm Feuchte Auss BlattFeu 1 Luftdruck Regen Sonnenschein Regendauer Solar Windben Empfang
31.01.2018 00:00 4,7 C 5,0 C 3,3 C 91 % 0 lf 1018,6 hPa 0,0 l/m 0 min 0 min 0 W/m 13,5 km/h (3 Bft) 100,00 %
31.01.2018 00:02 4,7 C 4,4 C 3,3 C 91 % 0 lf 1018,5 hPa 0,0 l/m 0 min 0 min 0 W/m 9,0 km/h (2 Bft) 94,29 %
31.01.2018 00:04 4,7 C 4,4 C 3,3 C 91 % 0 lf 1018,4 hPa 0,0 l/m 0 min 0 min 0 W/m 9,0 km/h (2 Bft) 95,74 %
31.01.2018 00:08 4,7 C 4,4 C 3,3 C 91 % 0 lf 1018,4 hPa 0,0 l/m 0 min 0 min 0 W/m 11,3 km/h (2 Bft) 98,95 %
31.01.2018 00:10 4,7 C 4,4 C 3,3 C 90 % 0 lf 1018,4 hPa 0,0 l/m 0 min 0 min 0 W/m 9,0 km/h (2 Bft) 95,74 %
31.01.2018 00:12 4,7 C 4,4 C 3,3 C 90 % 0 lf 1018,4 hPa 0,0 l/m 0 min 0 min 0 W/m 11,3 km/h (2 Bft) 95,74 %
31.01.2018 00:14 4,7 C 4,4 C 3,3 C 90 % 0 lf 1018,4 hPa 0,0 l/m 0 min 0 min 0 W/m 11,3 km/h (2 Bft) 97,83 %
31.01.2018 00:16 4,7 C 4,4 C 3,3 C 90 % 0 lf 1018,4 hPa 0,0 l/m 0 min 0 min 0 W/m 11,3 km/h (2 Bft) 97,87 %
31.01.2018 00:18 4,7 C 4,4 C 3,3 C 90 % 0 lf 1018,3 hPa 0,0 l/m 0 min 0 min 0 W/m 9,0 km/h (2 Bft) 95,74 %
31.01.2018 00:20 4,7 C 5,0 C 3,3 C 90 % 0 lf 1018,3 hPa 0,0 l/m 0 min 0 min 0 W/m 9,0 km/h (2 Bft) 95,74 %
31.01.2018 00:22 4,7 C 5,0 C 3,3 C 90 % 0 lf 1018,3 hPa 0,0 l/m 0 min 0 min 0 W/m 9,0 km/h (2 Bft) 93,62 %
31.01.2018 00:24 4,7 C 5,0 C 3,3 C 90 % 0 lf 1018,2 hPa 0,0 l/m 0 min 0 min 0 W/m 11,3 km/h (2 Bft) 97,87 %
31.01.2018 00:26 4,7 C 5,0 C 3,3 C 91 % 0 lf 1018,3 hPa 0,0 l/m 0 min 0 min 0 W/m 11,3 km/h (2 Bft) 97,83 %
31.01.2018 00:28 4,7 C 5,0 C 3,3 C 91 % 0 lf 1018,1 hPa 0,0 l/m 0 min 0 min 0 W/m 13,5 km/h (3 Bft) 95,74 %
31.01.2018 00:30 4,7 C 5,0 C 3,3 C 91 % 0 lf 1018,0 hPa 0,0 l/m 0 min 0 min 0 W/m 13,5 km/h (3 Bft) 95,74 %
31.01.2018 00:32 4,8 C 5,0 C 3,3 C 91 % 0 lf 1018,0 hPa 0,0 l/m 0 min 0 min 0 W/m 11,3 km/h (2 Bft) 97,87 %
31.01.2018 00:34 4,8 C 5,0 C 3,3 C 91 % 0 lf 1017,9 hPa 0,0 l/m 0 min 0 min 0 W/m 9,0 km/h (2 Bft) 97,87 %
31.01.2018 00:36 4,8 C 5,0 C 3,3 C 91 % 0 lf 1017,9 hPa 0,0 l/m 0 min 0 min 0 W/m 9,0 km/h (2 Bft) 97,87 %
31.01.2018 00:38 4,8 C 5,0 C 3,3 C 91 % 0 lf 1017,9 hPa 0,0 l/m 0 min 0 min 0 W/m 9,0 km/h (2 Bft) 93,48 %
31.01.2018 00:40 4,8 C 5,0 C 3,3 C 91 % 0 lf 1017,8 hPa 0,0 l/m 0 min 0 min 0 W/m 9,0 km/h (2 Bft) 93,62 %
31.01.2018 00:42 4,8 C 5,0 C 3,9 C 91 % 0 lf 1017,8 hPa 0,0 l/m 0 min 0 min 0 W/m 9,0 km/h (2 Bft) 93,62 %
31.01.2018 00:44 4,8 C 5,0 C 3,9 C 91 % 0 lf 1017,7 hPa 0,0 l/m 0 min 0 min 0 W/m 11,3 km/h (2 Bft) 95,74 %
31.01.2018 00:46 4,8 C 5,0 C 3,9 C 91 % 0 lf 1017,7 hPa 0,0 l/m 0 min 0 min 0 W/m 9,0 km/h (2 Bft) 95,74 %
31.01.2018 00:48 4,8 C 5,0 C 3,9 C 91 % 0 lf 1017,7 hPa 0,0 l/m 0 min 0 min 0 W/m 9,0 km/h (2 Bft) 95,74 %
31.01.2018 00:50 4,8 C 5,0 C 3,9 C 91 % 0 lf 1017,6 hPa 0,0 l/m 0 min 0 min 0 W/m 9,0 km/h (2 Bft) 93,48 %
31.01.2018 00:52 4,8 C 5,0 C 3,9 C 91 % 0 lf 1017,5 hPa 0,0 l/m 0 min 0 min 0 W/m 9,0 km/h (2 Bft) 97,87 %
31.01.2018 00:54 4,9 C 5,0 C 3,9 C 91 % 0 lf 1017,5 hPa 0,0 l/m 0 min 0 min 0 W/m 11,3 km/h (2 Bft) 97,87 %
31.01.2018 00:56 4,9 C 5,0 C 3,9 C 91 % 0 lf 1017,5 hPa 0,0 l/m 0 min 0 min 0 W/m 11,3 km/h (2 Bft) 97,87 %
31.01.2018 00:58 4,9 C 5,0 C 3,9 C 91 % 0 lf 1017,4 hPa 0,0 l/m 0 min 0 min 0 W/m 13,5 km/h (3 Bft) 93,62 %
31.01.2018 01:00 4,9 C 5,0 C 3,9 C 91 % 0 lf 1017,4 hPa 0,0 l/m 0 min 0 min 0 W/m 6,8 km/h (2 Bft) 97,87 %
31.01.2018 01:02 4,9 C 5,0 C 3,9 C 91 % 0 lf 1017,3 hPa 0,0 l/m 0 min 0 min 0 W/m 9,0 km/h (2 Bft) 97,83 %
31.01.2018 01:04 4,9 C 5,0 C 3,9 C 91 % 0 lf 1017,3 hPa 0,0 l/m 0 min 0 min 0 W/m 11,3 km/h (2 Bft) 97,87 %
31.01.2018 01:06 5,0 C 5,0 C 3,9 C 91 % 0 lf 1017,3 hPa 0,0 l/m 0 min 0 min 0 W/m 13,5 km/h (3 Bft) 95,74 %
31.01.2018 01:08 5,0 C 5,0 C 3,9 C 91 % 0 lf 1017,2 hPa 0,0 l/m 0 min 0 min 0 W/m 11,3 km/h (2 Bft) 97,87 %
31.01.2018 01:10 5,0 C 5,6 C 3,9 C 91 % 0 lf 1017,2 hPa 0,0 l/m 0 min 0 min 0 W/m 15,8 km/h (3 Bft) 97,87 %
31.01.2018 01:12 5,1 C 5,6 C 3,9 C 91 % 0 lf 1017,1 hPa 0,0 l/m 0 min 0 min 0 W/m 13,5 km/h (3 Bft) 97,87 %
31.01.2018 01:14 5,1 C 5,6 C 4,4 C 91 % 0 lf 1017,1 hPa 0,0 l/m 0 min 0 min 0 W/m 13,5 km/h (3 Bft) 100,00 %
31.01.2018 01:16 5,1 C 5,6 C 4,4 C 91 % 0 lf 1017,1 hPa 0,0 l/m 0 min 0 min 0 W/m 15,8 km/h (3 Bft) 100,00 %
31.01.2018 01:18 5,2 C 5,6 C 4,4 C 91 % 0 lf 1017,0 hPa 0,0 l/m 0 min 0 min 0 W/m 13,5 km/h (3 Bft) 100,00 %
31.01.2018 01:20 5,2 C 5,6 C 4,4 C 91 % 0 lf 1017,0 hPa 0,0 l/m 0 min 0 min 0 W/m 13,5 km/h (3 Bft) 100,00 %
31.01.2018 01:22 5,2 C 5,6 C 4,4 C 91 % 0 lf 1017,0 hPa 0,0 l/m 0 min 0 min 0 W/m 15,8 km/h (3 Bft) 97,87 %
31.01.2018 01:24 5,2 C 5,6 C 4,4 C 91 % 0 lf 1017,0 hPa 0,0 l/m 0 min 0 min 0 W/m 15,8 km/h (3 Bft) 100,00 %
31.01.2018 01:26 5,3 C 5,6 C 4,4 C 92 % 0 lf 1016,9 hPa 0,0 l/m 0 min 0 min 0 W/m 13,5 km/h (3 Bft) 100,00 %
31.01.2018 01:28 5,3 C 5,6 C 4,4 C 92 % 0 lf 1016,9 hPa 0,0 l/m 0 min 0 min 0 W/m 13,5 km/h (3 Bft) 97,87 %
31.01.2018 01:30 5,3 C 5,6 C 4,4 C 92 % 0 lf 1016,8 hPa 0,0 l/m 0 min 0 min 0 W/m 13,5 km/h (3 Bft) 97,87 %
31.01.2018 01:32 5,4 C 5,6 C 4,4 C 92 % 0 lf 1016,7 hPa 0,0 l/m 0 min 0 min 0 W/m 11,3 km/h (2 Bft) 97,87 %
31.01.2018 01:34 5,4 C 5,6 C 3,9 C 92 % 0 lf 1016,7 hPa 0,0 l/m 0 min 0 min 0 W/m 15,8 km/h (3 Bft) 95,74 %
31.01.2018 01:36 5,4 C 5,6 C 3,9 C 92 % 0 lf 1016,6 hPa 0,0 l/m 0 min 0 min 0 W/m 15,8 km/h (3 Bft) 95,65 %
31.01.2018 01:38 5,5 C 5,6 C 4,4 C 92 % 0 lf 1016,6 hPa 0,0 l/m 0 min 0 min 0 W/m 11,3 km/h (2 Bft) 97,87 %
31.01.2018 01:40 5,5 C 5,6 C 4,4 C 92 % 0 lf 1016,5 hPa 0,0 l/m 0 min 0 min 0 W/m 13,5 km/h (3 Bft) 97,87 %
31.01.2018 01:42 5,5 C 5,6 C 4,4 C 92 % 0 lf 1016,5 hPa 0,0 l/m 0 min 0 min 0 W/m 13,5 km/h (3 Bft) 97,87 %
31.01.2018 01:44 5,6 C 5,6 C 4,4 C 92 % 2 lf 1016,5 hPa 0,0 l/m 0 min 0 min 0 W/m 11,3 km/h (2 Bft) 95,74 %
31.01.2018 01:46 5,6 C 5,6 C 4,4 C 92 % 1 lf 1016,5 hPa 0,0 l/m 0 min 2 min 0 W/m 13,5 km/h (3 Bft) 93,62 %
31.01.2018 01:48 5,6 C 5,0 C 4,4 C 92 % 3 lf 1016,4 hPa 0,0 l/m 0 min 2 min 0 W/m 11,3 km/h (2 Bft) 97,83 %
31.01.2018 01:50 5,6 C 5,0 C 4,4 C 92 % 4 lf 1016,3 hPa 0,0 l/m 0 min 2 min 0 W/m 20,3 km/h (4 Bft) 95,74 %
31.01.2018 01:52 5,7 C 5,0 C 4,4 C 92 % 4 lf 1016,2 hPa 0,0 l/m 0 min 0 min 0 W/m 15,8 km/h (3 Bft) 97,87 %
31.01.2018 01:54 5,7 C 5,0 C 4,4 C 92 % 4 lf 1016,2 hPa 0,0 l/m 0 min 0 min 0 W/m 15,8 km/h (3 Bft) 97,87 %
31.01.2018 01:56 5,8 C 5,0 C 4,4 C 93 % 4 lf 1016,1 hPa 0,0 l/m 0 min 0 min 0 W/m 15,8 km/h (3 Bft) 97,87 %
31.01.2018 01:58 5,8 C 5,6 C 4,4 C 93 % 4 lf 1016,0 hPa 0,0 l/m 0 min 0 min 0 W/m 20,3 km/h (4 Bft) 97,87 %
31.01.2018 02:00 5,8 C 5,6 C 4,4 C 93 % 3 lf 1015,9 hPa 0,0 l/m 0 min 0 min 0 W/m 15,8 km/h (3 Bft) 95,65 %
31.01.2018 02:02 5,9 C 5,6 C 4,4 C 93 % 3 lf 1015,9 hPa 0,0 l/m 0 min 0 min 0 W/m 15,8 km/h (3 Bft) 97,87 %
31.01.2018 02:04 5,9 C 5,6 C 4,4 C 93 % 3 lf 1015,8 hPa 0,0 l/m 0 min 0 min 0 W/m 18,0 km/h (3 Bft) 95,74 %
31.01.2018 02:06 5,9 C 5,6 C 4,4 C 93 % 3 lf 1015,8 hPa 0,0 l/m 0 min 0 min 0 W/m 13,5 km/h (3 Bft) 97,87 %
31.01.2018 02:08 6,0 C 5,6 C 4,4 C 93 % 2 lf 1015,7 hPa 0,0 l/m 0 min 0 min 0 W/m 15,8 km/h (3 Bft) 93,62 %
31.01.2018 02:10 6,0 C 5,6 C 4,4 C 93 % 2 lf 1015,7 hPa 0,0 l/m 0 min 0 min 0 W/m 15,8 km/h (3 Bft) 97,87 %
31.01.2018 02:12 6,0 C 5,6 C 4,4 C 94 % 1 lf 1015,6 hPa 0,0 l/m 0 min 0 min 0 W/m 15,8 km/h (3 Bft) 97,83 %
31.01.2018 02:14 6,1 C 5,6 C 4,4 C 94 % 1 lf 1015,6 hPa 0,0 l/m 0 min 0 min 0 W/m 18,0 km/h (3 Bft) 97,87 %
31.01.2018 02:16 6,1 C 5,6 C 4,4 C 94 % 1 lf 1015,5 hPa 0,0 l/m 0 min 0 min 0 W/m 13,5 km/h (3 Bft) 95,74 %
31.01.2018 02:18 6,1 C 6,1 C 4,4 C 94 % 0 lf 1015,5 hPa 0,0 l/m 0 min 0 min 0 W/m 15,8 km/h (3 Bft) 97,87 %
31.01.2018 02:20 6,2 C 6,1 C 5,0 C 94 % 0 lf 1015,4 hPa 0,0 l/m 0 min 0 min 0 W/m 18,0 km/h (3 Bft) 97,87 %
31.01.2018 02:22 6,2 C 6,1 C 5,0 C 94 % 0 lf 1015,3 hPa 0,0 l/m 0 min 0 min 0 W/m 20,3 km/h (4 Bft) 100,00 %
31.01.2018 02:24 6,3 C 6,1 C 5,0 C 94 % 0 lf 1015,3 hPa 0,0 l/m 0 min 0 min 0 W/m 18,0 km/h (3 Bft) 100,00 %
31.01.2018 02:26 6,3 C 6,1 C 5,0 C 94 % 0 lf 1015,3 hPa 0,0 l/m 0 min 0 min 0 W/m 11,3 km/h (2 Bft) 95,74 %
31.01.2018 02:28 6,4 C 6,1 C 5,0 C 94 % 0 lf 1015,3 hPa 0,0 l/m 0 min 0 min 0 W/m 18,0 km/h (3 Bft) 100,00 %
31.01.2018 02:30 6,4 C 6,1 C 5,0 C 95 % 0 lf 1015,3 hPa 0,0 l/m 0 min 0 min 0 W/m 15,8 km/h (3 Bft) 93,62 %
31.01.2018 02:32 6,4 C 6,1 C 5,0 C 95 % 0 lf 1015,2 hPa 0,0 l/m 0 min 0 min 0 W/m 15,8 km/h (3 Bft) 95,74 %
31.01.2018 02:34 6,4 C 6,1 C 5,0 C 95 % 1 lf 1015,2 hPa 0,0 l/m 0 min 0 min 0 W/m 18,0 km/h (3 Bft) 97,83 %
31.01.2018 02:36 6,4 C 6,1 C 5,0 C 95 % 3 lf 1015,2 hPa 0,0 l/m 0 min 2 min 0 W/m 11,3 km/h (2 Bft) 97,87 %
31.01.2018 02:38 6,5 C 6,1 C 5,0 C 95 % 5 lf 1015,2 hPa 0,0 l/m 0 min 0 min 0 W/m 13,5 km/h (3 Bft) 97,87 %
31.01.2018 02:40 6,6 C 6,1 C 5,0 C 95 % 7 lf 1015,2 hPa 0,0 l/m 0 min 2 min 0 W/m 20,3 km/h (4 Bft) 97,87 %
31.01.2018 02:42 6,6 C 6,1 C 5,0 C 95 % 7 lf 1015,1 hPa 0,2 l/m 0 min 2 min 0 W/m 15,8 km/h (3 Bft) 97,87 %
31.01.2018 02:44 6,6 C 6,1 C 5,0 C 95 % 9 lf 1014,9 hPa 0,0 l/m 0 min 2 min 0 W/m 13,5 km/h (3 Bft) 97,87 %
31.01.2018 02:46 6,7 C 6,1 C 5,0 C 95 % 9 lf 1014,9 hPa 0,0 l/m 0 min 2 min 0 W/m 15,8 km/h (3 Bft) 95,65 %
31.01.2018 02:48 6,7 C 6,1 C 5,0 C 95 % 9 lf 1014,9 hPa 0,0 l/m 0 min 2 min 0 W/m 15,8 km/h (3 Bft) 91,49 %
31.01.2018 02:50 6,7 C 6,7 C 5,6 C 95 % 9 lf 1014,7 hPa 0,0 l/m 0 min 2 min 0 W/m 18,0 km/h (3 Bft) 95,74 %
31.01.2018 02:52 6,7 C 6,1 C 5,6 C 96 % 10 lf 1014,7 hPa 0,0 l/m 0 min 2 min 0 W/m 13,5 km/h (3 Bft) 93,62 %
31.01.2018 02:54 6,8 C 6,7 C 5,6 C 96 % 10 lf 1014,7 hPa 0,0 l/m 0 min 0 min 0 W/m 13,5 km/h (3 Bft) 91,49 %
31.01.2018 02:56 6,8 C 6,7 C 5,6 C 96 % 10 lf 1014,5 hPa 0,0 l/m 0 min 0 min 0 W/m 20,3 km/h (4 Bft) 93,62 %
31.01.2018 02:58 6,8 C 6,7 C 5,6 C 96 % 10 lf 1014,5 hPa 0,0 l/m 0 min 2 min 0 W/m 18,0 km/h (3 Bft) 89,13 %
31.01.2018 03:00 6,8 C 6,7 C 5,6 C 96 % 10 lf 1014,5 hPa 0,0 l/m 0 min 0 min 0 W/m 13,5 km/h (3 Bft) 93,62 %
31.01.2018 03:02 6,8 C 6,7 C 5,6 C 96 % 10 lf 1014,4 hPa 0,0 l/m 0 min 0 min 0 W/m 9,0 km/h (2 Bft) 93,62 %
31.01.2018 03:04 6,8 C 6,7 C 5,6 C 96 % 10 lf 1014,3 hPa 0,0 l/m 0 min 0 min 0 W/m 15,8 km/h (3 Bft) 91,49 %
31.01.2018 03:06 6,9 C 6,7 C 5,6 C 96 % 10 lf 1014,3 hPa 0,0 l/m 0 min 0 min 0 W/m 11,3 km/h (2 Bft) 91,49 %
31.01.2018 03:08 6,9 C 6,7 C 5,6 C 96 % 11 lf 1014,3 hPa 0,0 l/m 0 min 0 min 0 W/m 11,3 km/h (2 Bft) 95,74 %
31.01.2018 03:10 6,9 C 6,7 C 5,6 C 96 % 11 lf 1014,2 hPa 0,0 l/m 0 min 0 min 0 W/m 13,5 km/h (3 Bft) 95,65 %
31.01.2018 03:12 6,9 C 6,7 C 5,6 C 96 % 11 lf 1014,1 hPa 0,0 l/m 0 min 2 min 0 W/m 15,8 km/h (3 Bft) 95,74 %
31.01.2018 03:14 6,9 C 6,7 C 5,6 C 96 % 11 lf 1014,0 hPa 0,0 l/m 0 min 2 min 0 W/m 13,5 km/h (3 Bft) 95,74 %
31.01.2018 03:16 6,9 C 6,7 C 5,6 C 96 % 11 lf 1014,0 hPa 0,0 l/m 0 min 2 min 0 W/m 15,8 km/h (3 Bft) 95,74 %
31.01.2018 03:18 7,0 C 6,7 C 5,6 C 96 % 12 lf 1013,9 hPa 0,0 l/m 0 min 0 min 0 W/m 13,5 km/h (3 Bft) 93,62 %
31.01.2018 03:20 7,0 C 6,7 C 5,6 C 96 % 12 lf 1013,8 hPa 0,0 l/m 0 min 2 min 0 W/m 13,5 km/h (3 Bft) 93,62 %
31.01.2018 03:22 7,1 C 6,7 C 5,6 C 96 % 13 lf 1013,8 hPa 0,0 l/m 0 min 2 min 0 W/m 15,8 km/h (3 Bft) 93,48 %
31.01.2018 03:24 7,1 C 6,7 C 5,6 C 96 % 13 lf 1013,7 hPa 0,0 l/m 0 min 0 min 0 W/m 13,5 km/h (3 Bft) 93,62 %
31.01.2018 03:26 7,1 C 6,7 C 5,6 C 96 % 12 lf 1013,6 hPa 0,0 l/m 0 min 0 min 0 W/m 20,3 km/h (4 Bft) 95,74 %
31.01.2018 03:28 7,2 C 6,7 C 5,6 C 96 % 12 lf 1013,6 hPa 0,0 l/m 0 min 0 min 0 W/m 13,5 km/h (3 Bft) 89,36 %
31.01.2018 03:30 7,2 C 6,7 C 5,6 C 97 % 12 lf 1013,5 hPa 0,0 l/m 0 min 0 min 0 W/m 15,8 km/h (3 Bft) 95,74 %
31.01.2018 03:32 7,2 C 6,7 C 5,6 C 97 % 12 lf 1013,5 hPa 0,0 l/m 0 min 0 min 0 W/m 9,0 km/h (2 Bft) 97,83 %
31.01.2018 03:34 7,2 C 7,2 C 6,1 C 97 % 13 lf 1013,4 hPa 0,0 l/m 0 min 2 min 0 W/m 18,0 km/h (3 Bft) 97,87 %
31.01.2018 03:36 7,3 C 7,2 C 6,1 C 97 % 13 lf 1013,5 hPa 0,0 l/m 0 min 2 min 0 W/m 15,8 km/h (3 Bft) 97,87 %
31.01.2018 03:38 7,3 C 7,2 C 6,1 C 97 % 14 lf 1013,4 hPa 0,0 l/m 0 min 2 min 0 W/m 15,8 km/h (3 Bft) 95,74 %
31.01.2018 03:40 7,3 C 7,2 C 6,1 C 97 % 14 lf 1013,3 hPa 0,0 l/m 0 min 2 min 0 W/m 15,8 km/h (3 Bft) 93,62 %
31.01.2018 03:42 7,4 C 7,2 C 6,1 C 97 % 15 lf 1013,3 hPa 0,0 l/m 0 min 2 min 0 W/m 18,0 km/h (3 Bft) 97,87 %
31.01.2018 03:44 7,6 C 7,8 C 6,7 C 97 % 15 lf 1013,3 hPa 0,2 l/m 0 min 2 min 0 W/m 27,0 km/h (4 Bft) 93,48 %
31.01.2018 03:46 7,6 C 7,8 C 6,7 C 97 % 15 lf 1013,2 hPa 0,0 l/m 0 min 2 min 0 W/m 20,3 km/h (4 Bft) 93,62 %
31.01.2018 03:48 7,8 C 7,8 C 6,7 C 97 % 15 lf 1013,3 hPa 0,0 l/m 0 min 2 min 0 W/m 20,3 km/h (4 Bft) 100,00 %
31.01.2018 03:50 7,9 C 7,8 C 6,7 C 97 % 15 lf 1013,1 hPa 0,0 l/m 0 min 2 min 0 W/m 24,8 km/h (4 Bft) 97,87 %
31.01.2018 03:52 8,1 C 8,3 C 6,7 C 97 % 15 lf 1013,0 hPa 0,0 l/m 0 min 2 min 0 W/m 20,3 km/h (4 Bft) 97,87 %
31.01.2018 03:54 8,1 C 8,3 C 6,7 C 97 % 15 lf 1013,1 hPa 0,0 l/m 0 min 0 min 0 W/m 15,8 km/h (3 Bft) 100,00 %
31.01.2018 03:56 8,2 C 8,3 C 7,2 C 97 % 15 lf 1013,0 hPa 0,0 l/m 0 min 0 min 0 W/m 15,8 km/h (3 Bft) 100,00 %
31.01.2018 03:58 8,3 C 8,3 C 7,2 C 97 % 15 lf 1013,0 hPa 0,0 l/m 0 min 2 min 0 W/m 22,5 km/h (4 Bft) 97,87 %
31.01.2018 04:00 8,3 C 8,3 C 7,2 C 97 % 15 lf 1012,9 hPa 0,0 l/m 0 min 0 min 0 W/m 22,5 km/h (4 Bft) 97,87 %
31.01.2018 04:05 8,5 C 8,3 C 7,2 C 98 % 15 lf 1012,7 hPa 0,0 l/m 0 min 0 min 0 W/m 24,8 km/h (4 Bft) 96,88 %
31.01.2018 04:06 8,5 C 8,3 C 7,2 C 98 % 15 lf 1012,7 hPa 0,0 l/m 0 min 1 min 0 W/m 20,3 km/h (4 Bft) 100,00 %
31.01.2018 04:08 8,6 C 8,3 C 7,2 C 98 % 15 lf 1012,8 hPa 0,0 l/m 0 min 0 min 0 W/m 27,0 km/h (4 Bft) 100,00 %
31.01.2018 04:10 8,6 C 8,3 C 7,2 C 98 % 15 lf 1012,6 hPa 0,0 l/m 0 min 2 min 0 W/m 24,8 km/h (4 Bft) 97,87 %
31.01.2018 04:12 8,7 C 8,3 C 7,2 C 98 % 15 lf 1012,5 hPa 0,0 l/m 0 min 0 min 0 W/m 24,8 km/h (4 Bft) 100,00 %
31.01.2018 04:14 8,7 C 8,3 C 7,2 C 98 % 15 lf 1012,5 hPa 0,0 l/m 0 min 2 min 0 W/m 36,0 km/h (5 Bft) 100,00 %
31.01.2018 04:16 8,7 C 8,3 C 7,2 C 98 % 15 lf 1012,5 hPa 0,0 l/m 0 min 2 min 0 W/m 31,5 km/h (5 Bft) 100,00 %
31.01.2018 04:18 8,7 C 8,3 C 7,2 C 98 % 15 lf 1012,4 hPa 0,0 l/m 0 min 2 min 0 W/m 27,0 km/h (4 Bft) 100,00 %
31.01.2018 04:20 8,8 C 8,3 C 7,2 C 98 % 15 lf 1012,4 hPa 0,0 l/m 0 min 0 min 0 W/m 20,3 km/h (4 Bft) 93,48 %
31.01.2018 04:22 8,8 C 8,3 C 7,2 C 98 % 15 lf 1012,4 hPa 0,0 l/m 0 min 2 min 0 W/m 20,3 km/h (4 Bft) 97,87 %
31.01.2018 04:24 8,8 C 8,3 C 7,2 C 98 % 15 lf 1012,3 hPa 0,0 l/m 0 min 2 min 0 W/m 22,5 km/h (4 Bft) 95,74 %
31.01.2018 04:26 8,8 C 8,3 C 7,2 C 98 % 15 lf 1012,2 hPa 0,0 l/m 0 min 2 min 0 W/m 22,5 km/h (4 Bft) 97,87 %
31.01.2018 04:28 8,8 C 8,3 C 7,2 C 98 % 15 lf 1012,3 hPa 0,0 l/m 0 min 2 min 0 W/m 24,8 km/h (4 Bft) 93,62 %
31.01.2018 04:30 8,8 C 8,3 C 7,2 C 98 % 15 lf 1012,2 hPa 0,0 l/m 0 min 2 min 0 W/m 20,3 km/h (4 Bft) 93,62 %
31.01.2018 04:32 8,9 C 8,3 C 7,2 C 98 % 15 lf 1012,2 hPa 0,0 l/m 0 min 2 min 0 W/m 24,8 km/h (4 Bft) 93,48 %
31.01.2018 04:34 8,9 C 8,3 C 7,2 C 98 % 15 lf 1012,1 hPa 0,2 l/m 0 min 2 min 0 W/m 22,5 km/h (4 Bft) 93,62 %
31.01.2018 04:36 8,9 C 8,3 C 7,2 C 98 % 15 lf 1012,1 hPa 0,0 l/m 0 min 2 min 0 W/m 31,5 km/h (5 Bft) 91,49 %
31.01.2018 04:38 8,9 C 8,3 C 7,2 C 98 % 15 lf 1012,0 hPa 0,0 l/m 0 min 2 min 0 W/m 22,5 km/h (4 Bft) 95,74 %
31.01.2018 04:40 8,9 C 8,3 C 7,2 C 98 % 15 lf 1012,0 hPa 0,0 l/m 0 min 2 min 0 W/m 27,0 km/h (4 Bft) 93,62 %
31.01.2018 04:42 8,9 C 8,3 C 7,2 C 98 % 15 lf 1012,0 hPa 0,0 l/m 0 min 2 min 0 W/m 24,8 km/h (4 Bft) 95,65 %
31.01.2018 04:44 8,9 C 8,3 C 7,2 C 98 % 15 lf 1011,9 hPa 0,0 l/m 0 min 2 min 0 W/m 27,0 km/h (4 Bft) 93,62 %
31.01.2018 04:46 8,9 C 8,3 C 7,2 C 98 % 15 lf 1011,9 hPa 0,0 l/m 0 min 0 min 0 W/m 15,8 km/h (3 Bft) 95,74 %
31.01.2018 04:48 8,9 C 8,3 C 7,2 C 98 % 15 lf 1011,9 hPa 0,0 l/m 0 min 2 min 0 W/m 33,8 km/h (5 Bft) 95,74 %
31.01.2018 04:50 8,9 C 8,3 C 7,2 C 98 % 15 lf 1011,8 hPa 0,0 l/m 0 min 2 min 0 W/m 29,3 km/h (5 Bft) 95,74 %
31.01.2018 04:52 9,0 C 8,3 C 7,2 C 98 % 15 lf 1011,8 hPa 0,0 l/m 0 min 0 min 0 W/m 38,3 km/h (5 Bft) 95,74 %
31.01.2018 04:54 9,0 C 8,3 C 7,2 C 98 % 15 lf 1011,7 hPa 0,0 l/m 0 min 2 min 0 W/m 24,8 km/h (4 Bft) 93,48 %
31.01.2018 04:56 9,0 C 8,3 C 7,2 C 98 % 15 lf 1011,6 hPa 0,0 l/m 0 min 0 min 0 W/m 22,5 km/h (4 Bft) 95,74 %
31.01.2018 04:58 9,0 C 8,3 C 7,2 C 98 % 15 lf 1011,6 hPa 0,0 l/m 0 min 0 min 0 W/m 24,8 km/h (4 Bft) 95,74 %
31.01.2018 05:00 9,0 C 8,3 C 7,2 C 98 % 15 lf 1011,6 hPa 0,0 l/m 0 min 0 min 0 W/m 38,3 km/h (5 Bft) 97,87 %
31.01.2018 05:02 9,1 C 8,3 C 7,2 C 98 % 15 lf 1011,5 hPa 0,0 l/m 0 min 0 min 0 W/m 27,0 km/h (4 Bft) 97,87 %
31.01.2018 05:04 9,1 C 8,3 C 7,2 C 98 % 15 lf 1011,5 hPa 0,0 l/m 0 min 0 min 0 W/m 27,0 km/h (4 Bft) 97,87 %
31.01.2018 05:06 9,1 C 8,3 C 7,2 C 98 % 15 lf 1011,6 hPa 0,0 l/m 0 min 2 min 0 W/m 22,5 km/h (4 Bft) 97,83 %
31.01.2018 05:08 9,1 C 8,9 C 7,8 C 98 % 15 lf 1011,4 hPa 0,0 l/m 0 min 2 min 0 W/m 29,3 km/h (5 Bft) 97,87 %
31.01.2018 05:10 9,1 C 8,3 C 7,2 C 98 % 15 lf 1011,3 hPa 0,0 l/m 0 min 2 min 0 W/m 29,3 km/h (5 Bft) 100,00 %
31.01.2018 05:12 9,1 C 8,3 C 7,2 C 98 % 15 lf 1011,3 hPa 0,0 l/m 0 min 0 min 0 W/m 36,0 km/h (5 Bft) 100,00 %
31.01.2018 05:14 9,1 C 8,3 C 7,2 C 98 % 15 lf 1011,3 hPa 0,0 l/m 0 min 0 min 0 W/m 27,0 km/h (4 Bft) 100,00 %
31.01.2018 05:16 9,1 C 8,3 C 7,2 C 98 % 15 lf 1011,3 hPa 0,0 l/m 0 min 0 min 0 W/m 22,5 km/h (4 Bft) 97,87 %
31.01.2018 05:18 9,1 C 8,3 C 7,8 C 98 % 15 lf 1011,2 hPa 0,0 l/m 0 min 2 min 0 W/m 24,8 km/h (4 Bft) 100,00 %
31.01.2018 05:20 9,1 C 8,3 C 7,8 C 98 % 15 lf 1011,2 hPa 0,0 l/m 0 min 2 min 0 W/m 36,0 km/h (5 Bft) 95,74 %
31.01.2018 05:22 9,1 C 8,3 C 7,2 C 98 % 15 lf 1011,1 hPa 0,0 l/m 0 min 0 min 0 W/m 27,0 km/h (4 Bft) 100,00 %
31.01.2018 05:24 9,1 C 8,3 C 7,8 C 98 % 15 lf 1011,2 hPa 0,0 l/m 0 min 0 min 0 W/m 24,8 km/h (4 Bft) 97,87 %
31.01.2018 05:26 9,1 C 8,3 C 7,8 C 98 % 15 lf 1011,0 hPa 0,0 l/m 0 min 0 min 0 W/m 22,5 km/h (4 Bft) 97,87 %
31.01.2018 05:28 9,1 C 8,3 C 7,2 C 98 % 15 lf 1011,0 hPa 0,0 l/m 0 min 0 min 0 W/m 27,0 km/h (4 Bft) 97,87 %
31.01.2018 05:30 9,2 C 8,3 C 7,8 C 98 % 15 lf 1011,0 hPa 0,0 l/m 0 min 0 min 0 W/m 33,8 km/h (5 Bft) 97,83 %
31.01.2018 05:32 9,2 C 8,3 C 7,8 C 98 % 15 lf 1010,9 hPa 0,0 l/m 0 min 2 min 0 W/m 31,5 km/h (5 Bft) 97,87 %
31.01.2018 05:34 9,2 C 8,3 C 7,8 C 98 % 15 lf 1010,9 hPa 0,0 l/m 0 min 0 min 0 W/m 24,8 km/h (4 Bft) 95,74 %
31.01.2018 05:35 9,2 C 8,3 C 7,8 C 98 % 15 lf 1010,9 hPa 0,0 l/m 0 min 0 min 0 W/m 40,6 km/h (6 Bft) 98,25 %
31.01.2018 05:40 9,2 C 8,9 C 7,8 C 98 % 15 lf 1010,9 hPa 0,0 l/m 0 min 0 min 0 W/m 29,3 km/h (5 Bft) 97,83 %
31.01.2018 05:42 9,2 C 8,9 C 7,8 C 98 % 15 lf 1010,8 hPa 0,0 l/m 0 min 2 min 0 W/m 33,8 km/h (5 Bft) 100,00 %
31.01.2018 05:44 9,2 C 8,3 C 7,8 C 98 % 15 lf 1010,8 hPa 0,0 l/m 0 min 2 min 0 W/m 27,0 km/h (4 Bft) 95,74 %
31.01.2018 05:46 9,2 C 8,3 C 7,8 C 98 % 15 lf 1010,8 hPa 0,0 l/m 0 min 2 min 0 W/m 27,0 km/h (4 Bft) 95,83 %
31.01.2018 05:48 9,2 C 8,9 C 7,8 C 98 % 15 lf 1010,8 hPa 0,0 l/m 0 min 2 min 0 W/m 31,5 km/h (5 Bft) 97,87 %
31.01.2018 05:50 9,2 C 8,9 C 7,8 C 98 % 15 lf 1010,8 hPa 0,0 l/m 0 min 2 min 0 W/m 31,5 km/h (5 Bft) 98,31 %
31.01.2018 05:52 9,2 C 8,9 C 7,8 C 98 % 15 lf 1010,7 hPa 0,0 l/m 0 min 0 min 0 W/m 31,5 km/h (5 Bft) 97,14 %
31.01.2018 05:54 9,2 C 8,9 C 7,8 C 98 % 15 lf 1010,8 hPa 0,0 l/m 0 min 2 min 0 W/m 29,3 km/h (5 Bft) 97,92 %
31.01.2018 05:56 9,2 C 8,9 C 7,8 C 98 % 15 lf 1010,7 hPa 0,0 l/m 0 min 2 min 0 W/m 38,3 km/h (5 Bft) 97,87 %
31.01.2018 05:58 9,3 C 8,9 C 7,8 C 98 % 15 lf 1010,6 hPa 0,0 l/m 0 min 2 min 0 W/m 29,3 km/h (5 Bft) 95,74 %
31.01.2018 06:00 9,3 C 8,9 C 7,8 C 98 % 15 lf 1010,7 hPa 0,0 l/m 0 min 2 min 0 W/m 31,5 km/h (5 Bft) 100,00 %
31.01.2018 06:02 9,3 C 8,9 C 7,8 C 98 % 14 lf 1010,7 hPa 0,0 l/m 0 min 2 min 0 W/m 36,0 km/h (5 Bft) 97,83 %
31.01.2018 06:04 9,3 C 8,9 C 7,8 C 98 % 14 lf 1010,6 hPa 0,0 l/m 0 min 2 min 0 W/m 36,0 km/h (5 Bft) 97,67 %
31.01.2018 06:08 9,3 C 8,9 C 7,8 C 97 % 13 lf 1010,6 hPa 0,0 l/m 0 min 4 min 0 W/m 36,0 km/h (5 Bft) 93,75 %
31.01.2018 06:10 9,3 C 8,9 C 7,8 C 97 % 12 lf 1010,5 hPa 0,0 l/m 0 min 2 min 0 W/m 31,5 km/h (5 Bft) 95,74 %
31.01.2018 06:12 9,3 C 8,9 C 7,8 C 97 % 12 lf 1010,5 hPa 0,0 l/m 0 min 2 min 0 W/m 27,0 km/h (4 Bft) 97,92 %
31.01.2018 06:14 9,4 C 8,9 C 7,8 C 97 % 13 lf 1010,5 hPa 0,0 l/m 0 min 2 min 0 W/m 40,6 km/h (6 Bft) 100,00 %
31.01.2018 06:16 9,4 C 8,9 C 7,8 C 97 % 13 lf 1010,5 hPa 0,0 l/m 0 min 2 min 0 W/m 27,0 km/h (4 Bft) 97,87 %
31.01.2018 06:18 9,4 C 8,9 C 7,8 C 97 % 15 lf 1010,6 hPa 0,0 l/m 0 min 2 min 0 W/m 29,3 km/h (5 Bft) 100,00 %
31.01.2018 06:20 9,4 C 8,9 C 7,8 C 97 % 15 lf 1010,5 hPa 0,0 l/m 0 min 2 min 0 W/m 31,5 km/h (5 Bft) 97,92 %
31.01.2018 06:22 9,4 C 8,9 C 7,8 C 97 % 15 lf 1010,4 hPa 0,0 l/m 0 min 2 min 0 W/m 27,0 km/h (4 Bft) 97,87 %
31.01.2018 06:24 9,4 C 8,9 C 7,8 C 97 % 15 lf 1010,4 hPa 0,0 l/m 0 min 2 min 0 W/m 29,3 km/h (5 Bft) 100,00 %
31.01.2018 06:26 9,3 C 8,3 C 7,8 C 97 % 15 lf 1010,4 hPa 0,0 l/m 0 min 2 min 0 W/m 22,5 km/h (4 Bft) 95,74 %
31.01.2018 06:28 9,3 C 8,3 C 7,8 C 97 % 15 lf 1010,3 hPa 0,0 l/m 0 min 2 min 0 W/m 20,3 km/h (4 Bft) 95,74 %
31.01.2018 06:30 9,3 C 8,3 C 7,8 C 97 % 15 lf 1010,3 hPa 0,0 l/m 0 min 2 min 0 W/m 29,3 km/h (5 Bft) 94,44 %
31.01.2018 06:32 9,3 C 8,3 C 7,8 C 97 % 15 lf 1010,4 hPa 0,0 l/m 0 min 2 min 0 W/m 33,8 km/h (5 Bft) 94,92 %
31.01.2018 06:34 9,3 C 8,3 C 7,8 C 97 % 15 lf 1010,2 hPa 0,0 l/m 0 min 2 min 0 W/m 33,8 km/h (5 Bft) 93,62 %
31.01.2018 06:36 9,3 C 8,9 C 7,8 C 97 % 15 lf 1010,3 hPa 0,0 l/m 0 min 2 min 0 W/m 33,8 km/h (5 Bft) 95,74 %
31.01.2018 06:38 9,3 C 8,3 C 7,8 C 97 % 15 lf 1010,2 hPa 0,0 l/m 0 min 2 min 0 W/m 27,0 km/h (4 Bft) 93,62 %
31.01.2018 06:40 9,3 C 8,3 C 7,8 C 97 % 15 lf 1010,2 hPa 0,0 l/m 0 min 2 min 0 W/m 29,3 km/h (5 Bft) 95,83 %
31.01.2018 06:42 9,3 C 8,3 C 7,8 C 97 % 15 lf 1010,2 hPa 0,0 l/m 0 min 2 min 0 W/m 36,0 km/h (5 Bft) 95,74 %
31.01.2018 06:44 9,3 C 8,3 C 7,8 C 97 % 15 lf 1010,2 hPa 0,0 l/m 0 min 2 min 0 W/m 31,5 km/h (5 Bft) 95,83 %
31.01.2018 06:46 9,3 C 8,3 C 7,8 C 97 % 15 lf 1010,1 hPa 0,0 l/m 0 min 2 min 0 W/m 29,3 km/h (5 Bft) 95,65 %
31.01.2018 06:48 9,3 C 8,3 C 7,8 C 97 % 15 lf 1010,1 hPa 0,0 l/m 0 min 2 min 0 W/m 33,8 km/h (5 Bft) 95,74 %
31.01.2018 06:50 9,3 C 8,3 C 7,8 C 97 % 15 lf 1010,1 hPa 0,0 l/m 0 min 2 min 0 W/m 33,8 km/h (5 Bft) 97,92 %
31.01.2018 06:52 9,3 C 8,3 C 7,8 C 97 % 15 lf 1010,1 hPa 0,0 l/m 0 min 0 min 0 W/m 29,3 km/h (5 Bft) 95,74 %
31.01.2018 06:54 9,3 C 8,3 C 7,8 C 97 % 15 lf 1010,1 hPa 0,0 l/m 0 min 0 min 0 W/m 27,0 km/h (4 Bft) 97,87 %
31.01.2018 06:56 9,3 C 8,3 C 7,8 C 97 % 15 lf 1010,1 hPa 0,0 l/m 0 min 0 min 0 W/m 33,8 km/h (5 Bft) 95,74 %
31.01.2018 06:58 9,3 C 8,3 C 7,8 C 97 % 15 lf 1010,1 hPa 0,0 l/m 0 min 2 min 0 W/m 29,3 km/h (5 Bft) 97,83 %
31.01.2018 07:00 9,3 C 8,3 C 7,8 C 97 % 15 lf 1010,1 hPa 0,0 l/m 0 min 2 min 0 W/m 27,0 km/h (4 Bft) 97,87 %
31.01.2018 07:02 9,3 C 8,3 C 7,8 C 97 % 15 lf 1010,1 hPa 0,2 l/m 0 min 0 min 0 W/m 27,0 km/h (4 Bft) 93,88 %
31.01.2018 07:04 9,3 C 8,3 C 7,8 C 97 % 15 lf 1010,1 hPa 0,0 l/m 0 min 2 min 0 W/m 22,5 km/h (4 Bft) 95,74 %
31.01.2018 07:06 9,3 C 8,3 C 7,8 C 97 % 15 lf 1010,2 hPa 0,0 l/m 0 min 2 min 0 W/m 33,8 km/h (5 Bft) 95,74 %
31.01.2018 07:08 9,3 C 8,3 C 7,8 C 97 % 15 lf 1010,1 hPa 0,0 l/m 0 min 2 min 0 W/m 24,8 km/h (4 Bft) 95,74 %
31.01.2018 07:10 9,3 C 8,3 C 7,8 C 97 % 15 lf 1010,1 hPa 0,0 l/m 0 min 2 min 0 W/m 27,0 km/h (4 Bft) 93,48 %
31.01.2018 07:12 9,3 C 8,3 C 7,8 C 97 % 15 lf 1010,0 hPa 0,0 l/m 0 min 2 min 0 W/m 33,8 km/h (5 Bft) 93,62 %
31.01.2018 07:14 9,3 C 8,3 C 7,8 C 97 % 15 lf 1010,0 hPa 0,0 l/m 0 min 2 min 0 W/m 40,6 km/h (6 Bft) 95,74 %
31.01.2018 07:16 9,3 C 8,3 C 7,8 C 97 % 15 lf 1010,0 hPa 0,0 l/m 0 min 2 min 0 W/m 40,6 km/h (6 Bft) 95,74 %
31.01.2018 07:18 9,3 C 8,3 C 7,8 C 97 % 15 lf 1010,0 hPa 0,0 l/m 0 min 2 min 0 W/m 33,8 km/h (5 Bft) 97,87 %
31.01.2018 07:20 9,3 C 8,3 C 7,8 C 97 % 15 lf 1010,0 hPa 0,0 l/m 0 min 2 min 0 W/m 29,3 km/h (5 Bft) 95,74 %
31.01.2018 07:22 9,3 C 8,3 C 7,8 C 97 % 15 lf 1009,9 hPa 0,0 l/m 0 min 2 min 0 W/m 29,3 km/h (5 Bft) 95,65 %
31.01.2018 07:24 9,3 C 8,3 C 7,8 C 97 % 15 lf 1009,9 hPa 0,0 l/m 0 min 2 min 0 W/m 36,0 km/h (5 Bft) 95,74 %
31.01.2018 07:26 9,3 C 8,3 C 7,8 C 97 % 15 lf 1009,9 hPa 0,0 l/m 0 min 2 min 0 W/m 33,8 km/h (5 Bft) 93,62 %
31.01.2018 07:28 9,3 C 8,3 C 7,8 C 97 % 15 lf 1009,9 hPa 0,0 l/m 0 min 2 min 0 W/m 31,5 km/h (5 Bft) 95,74 %
31.01.2018 07:30 9,3 C 8,3 C 7,8 C 97 % 15 lf 1009,8 hPa 0,0 l/m 0 min 2 min 0 W/m 38,3 km/h (5 Bft) 93,62 %
31.01.2018 07:32 9,3 C 8,3 C 7,8 C 97 % 15 lf 1009,7 hPa 0,0 l/m 0 min 2 min 0 W/m 36,0 km/h (5 Bft) 95,65 %
31.01.2018 07:34 9,2 C 8,3 C 7,8 C 97 % 15 lf 1009,8 hPa 0,0 l/m 0 min 2 min 0 W/m 38,3 km/h (5 Bft) 97,62 %
31.01.2018 07:36 9,2 C 8,3 C 7,8 C 97 % 15 lf 1009,7 hPa 0,0 l/m 0 min 2 min 0 W/m 24,8 km/h (4 Bft) 97,87 %
31.01.2018 07:38 9,2 C 8,3 C 7,8 C 97 % 15 lf 1009,7 hPa 0,0 l/m 0 min 2 min 0 W/m 36,0 km/h (5 Bft) 95,74 %
31.01.2018 07:40 9,2 C 8,3 C 7,8 C 97 % 15 lf 1009,7 hPa 0,0 l/m 0 min 2 min 0 W/m 27,0 km/h (4 Bft) 97,87 %
31.01.2018 07:42 9,2 C 8,3 C 7,8 C 97 % 15 lf 1009,5 hPa 0,0 l/m 0 min 2 min 0 W/m 31,5 km/h (5 Bft) 95,83 %
31.01.2018 07:44 9,2 C 8,3 C 7,2 C 97 % 15 lf 1009,5 hPa 0,0 l/m 0 min 2 min 0 W/m 29,3 km/h (5 Bft) 95,74 %
31.01.2018 07:46 9,2 C 8,3 C 7,2 C 97 % 15 lf 1009,4 hPa 0,2 l/m 0 min 2 min 0 W/m 38,3 km/h (5 Bft) 95,74 %
31.01.2018 07:48 9,2 C 8,3 C 7,2 C 97 % 15 lf 1009,3 hPa 0,0 l/m 0 min 2 min 0 W/m 40,6 km/h (6 Bft) 97,87 %
31.01.2018 07:50 9,2 C 8,3 C 7,2 C 97 % 15 lf 1009,2 hPa 0,0 l/m 0 min 2 min 0 W/m 27,0 km/h (4 Bft) 97,92 %
31.01.2018 07:52 9,2 C 8,3 C 7,2 C 97 % 15 lf 1009,2 hPa 0,0 l/m 0 min 2 min 0 W/m 27,0 km/h (4 Bft) 97,87 %
31.01.2018 07:54 9,2 C 8,3 C 7,2 C 97 % 15 lf 1009,2 hPa 0,0 l/m 0 min 2 min 0 W/m 38,3 km/h (5 Bft) 93,75 %
31.01.2018 07:56 9,2 C 8,3 C 7,2 C 97 % 15 lf 1009,1 hPa 0,0 l/m 0 min 2 min 0 W/m 36,0 km/h (5 Bft) 100,00 %
31.01.2018 07:58 9,2 C 8,3 C 7,2 C 97 % 15 lf 1009,1 hPa 0,0 l/m 0 min 2 min 0 W/m 33,8 km/h (5 Bft) 100,00 %
31.01.2018 08:00 9,1 C 8,3 C 7,2 C 97 % 15 lf 1009,1 hPa 0,0 l/m 0 min 2 min 0 W/m 36,0 km/h (5 Bft) 100,00 %
31.01.2018 08:02 9,1 C 8,3 C 7,2 C 97 % 15 lf 1009,1 hPa 0,0 l/m 0 min 2 min 0 W/m 24,8 km/h (4 Bft) 92,00 %
31.01.2018 08:04 9,1 C 8,3 C 7,2 C 97 % 15 lf 1009,1 hPa 0,0 l/m 0 min 2 min 0 W/m 38,3 km/h (5 Bft) 97,87 %
31.01.2018 08:06 9,1 C 8,3 C 7,2 C 97 % 15 lf 1008,8 hPa 0,0 l/m 0 min 2 min 0 W/m 36,0 km/h (5 Bft) 95,74 %
31.01.2018 08:08 9,1 C 8,3 C 7,2 C 97 % 15 lf 1008,8 hPa 0,0 l/m 0 min 2 min 0 W/m 24,8 km/h (4 Bft) 97,87 %
31.01.2018 08:10 9,1 C 8,3 C 7,2 C 97 % 15 lf 1008,9 hPa 0,0 l/m 0 min 2 min 0 W/m 33,8 km/h (5 Bft) 93,48 %
31.01.2018 08:12 9,1 C 8,3 C 7,2 C 97 % 15 lf 1008,8 hPa 0,0 l/m 0 min 2 min 0 W/m 22,5 km/h (4 Bft) 97,62 %
31.01.2018 08:14 9,1 C 8,3 C 7,2 C 97 % 15 lf 1008,9 hPa 0,0 l/m 0 min 0 min 0 W/m 40,6 km/h (6 Bft) 97,87 %
31.01.2018 08:16 9,1 C 8,3 C 7,2 C 97 % 15 lf 1008,8 hPa 0,2 l/m 0 min 2 min 0 W/m 38,3 km/h (5 Bft) 98,00 %
31.01.2018 08:18 9,1 C 8,3 C 7,2 C 97 % 15 lf 1008,8 hPa 0,0 l/m 0 min 2 min 0 W/m 33,8 km/h (5 Bft) 91,67 %
31.01.2018 08:20 9,1 C 8,3 C 7,2 C 97 % 15 lf 1008,7 hPa 0,0 l/m 0 min 2 min 0 W/m 29,3 km/h (5 Bft) 95,74 %
31.01.2018 08:22 9,0 C 8,3 C 7,2 C 97 % 15 lf 1008,6 hPa 0,0 l/m 0 min 2 min 0 W/m 51,8 km/h (7 Bft) 95,74 %
31.01.2018 08:24 9,0 C 8,3 C 7,2 C 97 % 15 lf 1008,5 hPa 0,0 l/m 0 min 2 min 4 W/m 40,6 km/h (6 Bft) 95,74 %
31.01.2018 08:26 9,0 C 8,3 C 7,2 C 97 % 15 lf 1008,6 hPa 0,0 l/m 0 min 2 min 5 W/m 27,0 km/h (4 Bft) 93,62 %
31.01.2018 08:28 9,0 C 8,3 C 7,2 C 97 % 15 lf 1008,6 hPa 0,0 l/m 0 min 0 min 5 W/m 22,5 km/h (4 Bft) 93,62 %
31.01.2018 08:30 9,0 C 8,3 C 7,2 C 97 % 15 lf 1008,6 hPa 0,0 l/m 0 min 2 min 6 W/m 38,3 km/h (5 Bft) 93,62 %
31.01.2018 08:32 9,1 C 8,3 C 7,8 C 97 % 15 lf 1008,6 hPa 0,0 l/m 0 min 2 min 7 W/m 38,3 km/h (5 Bft) 95,56 %
31.01.2018 08:34 9,1 C 8,3 C 7,2 C 97 % 15 lf 1008,6 hPa 0,0 l/m 0 min 2 min 7 W/m 47,3 km/h (6 Bft) 93,48 %
31.01.2018 08:36 9,1 C 8,3 C 7,2 C 97 % 15 lf 1008,6 hPa 0,0 l/m 0 min 2 min 7 W/m 38,3 km/h (5 Bft) 93,62 %
31.01.2018 08:38 9,1 C 8,3 C 7,2 C 97 % 15 lf 1008,5 hPa 0,0 l/m 0 min 2 min 8 W/m 36,0 km/h (5 Bft) 95,74 %
31.01.2018 08:40 9,1 C 8,3 C 7,2 C 97 % 15 lf 1008,4 hPa 0,0 l/m 0 min 2 min 9 W/m 38,3 km/h (5 Bft) 93,62 %
31.01.2018 08:42 9,1 C 8,3 C 7,2 C 97 % 15 lf 1008,2 hPa 0,0 l/m 0 min 2 min 11 W/m 38,3 km/h (5 Bft) 93,62 %
31.01.2018 08:44 9,1 C 8,3 C 7,2 C 97 % 15 lf 1008,2 hPa 0,0 l/m 0 min 2 min 10 W/m 33,8 km/h (5 Bft) 95,65 %
31.01.2018 08:46 9,1 C 8,3 C 7,2 C 97 % 15 lf 1008,1 hPa 0,0 l/m 0 min 2 min 10 W/m 24,8 km/h (4 Bft) 95,74 %
31.01.2018 08:48 9,1 C 8,3 C 7,2 C 97 % 15 lf 1008,0 hPa 0,0 l/m 0 min 2 min 11 W/m 42,8 km/h (6 Bft) 95,74 %
31.01.2018 08:50 9,1 C 8,3 C 7,2 C 97 % 15 lf 1008,1 hPa 0,0 l/m 0 min 2 min 10 W/m 40,6 km/h (6 Bft) 95,74 %
31.01.2018 08:52 9,1 C 8,3 C 7,2 C 97 % 15 lf 1008,0 hPa 0,0 l/m 0 min 2 min 12 W/m 24,8 km/h (4 Bft) 95,74 %
31.01.2018 08:54 9,1 C 8,3 C 7,2 C 97 % 15 lf 1007,9 hPa 0,0 l/m 0 min 2 min 13 W/m 33,8 km/h (5 Bft) 97,87 %
31.01.2018 08:56 9,1 C 8,3 C 7,2 C 97 % 15 lf 1007,9 hPa 0,0 l/m 0 min 2 min 17 W/m 38,3 km/h (5 Bft) 100,00 %
31.01.2018 08:58 9,1 C 8,3 C 7,2 C 97 % 15 lf 1007,8 hPa 0,0 l/m 0 min 2 min 15 W/m 33,8 km/h (5 Bft) 100,00 %
31.01.2018 09:00 9,1 C 8,3 C 7,2 C 97 % 15 lf 1007,9 hPa 0,0 l/m 0 min 2 min 14 W/m 40,6 km/h (6 Bft) 98,11 %
31.01.2018 09:02 9,1 C 8,3 C 7,2 C 96 % 15 lf 1007,8 hPa 0,0 l/m 0 min 2 min 14 W/m 40,6 km/h (6 Bft) 100,00 %
31.01.2018 09:04 9,1 C 8,3 C 7,2 C 96 % 15 lf 1007,8 hPa 0,0 l/m 0 min 2 min 16 W/m 31,5 km/h (5 Bft) 100,00 %
31.01.2018 09:06 9,1 C 8,3 C 7,2 C 96 % 15 lf 1007,8 hPa 0,0 l/m 0 min 2 min 16 W/m 42,8 km/h (6 Bft) 100,00 %
31.01.2018 09:08 9,1 C 8,3 C 7,2 C 96 % 15 lf 1007,9 hPa 0,0 l/m 0 min 2 min 19 W/m 36,0 km/h (5 Bft) 100,00 %
31.01.2018 09:10 9,1 C 8,3 C 7,2 C 96 % 15 lf 1007,8 hPa 0,0 l/m 0 min 2 min 19 W/m 36,0 km/h (5 Bft) 100,00 %
31.01.2018 09:12 9,1 C 8,3 C 7,2 C 96 % 15 lf 1007,8 hPa 0,0 l/m 0 min 2 min 18 W/m 38,3 km/h (5 Bft) 91,49 %
31.01.2018 09:14 9,2 C 8,3 C 7,2 C 96 % 15 lf 1007,8 hPa 0,0 l/m 0 min 2 min 16 W/m 33,8 km/h (5 Bft) 100,00 %
31.01.2018 09:16 9,2 C 8,3 C 7,2 C 96 % 15 lf 1007,8 hPa 0,0 l/m 0 min 2 min 15 W/m 36,0 km/h (5 Bft) 100,00 %
31.01.2018 09:18 9,2 C 8,3 C 7,2 C 96 % 15 lf 1007,8 hPa 0,0 l/m 0 min 2 min 16 W/m 29,3 km/h (5 Bft) 100,00 %
31.01.2018 09:20 9,2 C 8,3 C 7,2 C 96 % 15 lf 1007,7 hPa 0,0 l/m 0 min 2 min 22 W/m 47,3 km/h (6 Bft) 98,28 %
31.01.2018 09:22 9,2 C 8,3 C 7,2 C 96 % 15 lf 1007,6 hPa 0,0 l/m 0 min 2 min 31 W/m 40,6 km/h (6 Bft) 100,00 %
31.01.2018 09:24 9,2 C 8,3 C 7,2 C 96 % 15 lf 1007,5 hPa 0,0 l/m 0 min 2 min 24 W/m 33,8 km/h (5 Bft) 100,00 %
31.01.2018 09:26 9,2 C 8,3 C 7,2 C 96 % 15 lf 1007,6 hPa 0,0 l/m 0 min 2 min 17 W/m 31,5 km/h (5 Bft) 100,00 %
31.01.2018 09:28 9,2 C 8,3 C 7,2 C 95 % 15 lf 1007,5 hPa 0,0 l/m 0 min 2 min 22 W/m 36,0 km/h (5 Bft) 95,74 %
31.01.2018 09:30 9,2 C 8,3 C 7,2 C 95 % 15 lf 1007,3 hPa 0,0 l/m 0 min 2 min 21 W/m 49,6 km/h (6 Bft) 100,00 %
31.01.2018 09:32 9,2 C 8,3 C 7,2 C 95 % 15 lf 1007,5 hPa 0,0 l/m 0 min 2 min 24 W/m 40,6 km/h (6 Bft) 100,00 %
31.01.2018 09:34 9,3 C 8,9 C 7,8 C 95 % 15 lf 1007,4 hPa 0,0 l/m 0 min 2 min 29 W/m 40,6 km/h (6 Bft) 100,00 %
31.01.2018 09:36 9,3 C 8,9 C 7,8 C 95 % 15 lf 1007,3 hPa 0,0 l/m 0 min 2 min 31 W/m 31,5 km/h (5 Bft) 100,00 %
31.01.2018 09:38 9,3 C 8,9 C 7,8 C 95 % 14 lf 1007,2 hPa 0,0 l/m 0 min 0 min 33 W/m 31,5 km/h (5 Bft) 100,00 %
31.01.2018 09:40 9,3 C 8,9 C 7,8 C 95 % 13 lf 1007,2 hPa 0,0 l/m 0 min 2 min 31 W/m 38,3 km/h (5 Bft) 100,00 %
31.01.2018 09:42 9,3 C 8,9 C 7,8 C 95 % 11 lf 1007,3 hPa 0,0 l/m 0 min 2 min 26 W/m 45,1 km/h (6 Bft) 100,00 %
31.01.2018 09:44 9,3 C 8,9 C 7,8 C 94 % 8 lf 1007,2 hPa 0,0 l/m 0 min 2 min 29 W/m 49,6 km/h (6 Bft) 100,00 %
31.01.2018 09:46 9,3 C 8,9 C 7,8 C 94 % 4 lf 1007,2 hPa 0,0 l/m 0 min 2 min 32 W/m 29,3 km/h (5 Bft) 97,87 %
31.01.2018 09:48 9,3 C 8,9 C 7,8 C 94 % 3 lf 1007,2 hPa 0,0 l/m 0 min 2 min 25 W/m 38,3 km/h (5 Bft) 100,00 %
31.01.2018 09:50 9,4 C 8,9 C 7,8 C 94 % 1 lf 1007,2 hPa 0,0 l/m 0 min 0 min 23 W/m 27,0 km/h (4 Bft) 96,61 %
31.01.2018 09:52 9,4 C 8,9 C 7,8 C 94 % 0 lf 1007,2 hPa 0,0 l/m 0 min 2 min 25 W/m 49,6 km/h (6 Bft) 100,00 %
31.01.2018 09:54 9,4 C 8,9 C 7,8 C 94 % 1 lf 1007,1 hPa 0,0 l/m 0 min 2 min 29 W/m 40,6 km/h (6 Bft) 97,87 %
31.01.2018 09:56 9,4 C 8,9 C 7,8 C 94 % 0 lf 1007,1 hPa 0,0 l/m 0 min 2 min 35 W/m 38,3 km/h (5 Bft) 97,83 %
31.01.2018 09:58 9,4 C 8,9 C 7,8 C 93 % 0 lf 1007,1 hPa 0,0 l/m 0 min 0 min 41 W/m 27,0 km/h (4 Bft) 95,74 %
31.01.2018 10:00 9,4 C 8,9 C 7,8 C 93 % 0 lf 1007,0 hPa 0,0 l/m 0 min 0 min 42 W/m 27,0 km/h (4 Bft) 97,87 %
31.01.2018 10:02 9,4 C 8,9 C 7,8 C 93 % 0 lf 1007,0 hPa 0,0 l/m 0 min 2 min 44 W/m 33,8 km/h (5 Bft) 91,49 %
31.01.2018 10:04 9,4 C 8,9 C 7,8 C 93 % 0 lf 1006,9 hPa 0,0 l/m 0 min 2 min 36 W/m 49,6 km/h (6 Bft) 97,87 %
31.01.2018 10:06 9,4 C 8,9 C 7,8 C 93 % 0 lf 1006,8 hPa 0,0 l/m 0 min 0 min 38 W/m 36,0 km/h (5 Bft) 91,49 %
31.01.2018 10:08 9,4 C 8,9 C 7,8 C 93 % 0 lf 1006,8 hPa 0,0 l/m 0 min 0 min 40 W/m 38,3 km/h (5 Bft) 97,83 %
31.01.2018 10:10 9,4 C 8,9 C 7,8 C 93 % 0 lf 1006,8 hPa 0,0 l/m 0 min 2 min 40 W/m 29,3 km/h (5 Bft) 97,87 %
31.01.2018 10:12 9,4 C 8,9 C 7,8 C 93 % 0 lf 1006,6 hPa 0,0 l/m 0 min 0 min 44 W/m 40,6 km/h (6 Bft) 97,87 %
31.01.2018 10:14 9,4 C 8,9 C 7,8 C 93 % 0 lf 1006,7 hPa 0,0 l/m 0 min 0 min 36 W/m 49,6 km/h (6 Bft) 97,87 %
31.01.2018 10:16 9,4 C 8,9 C 7,8 C 92 % 0 lf 1006,8 hPa 0,0 l/m 0 min 2 min 33 W/m 49,6 km/h (6 Bft) 93,62 %
31.01.2018 10:18 9,4 C 9,4 C 7,8 C 92 % 0 lf 1006,7 hPa 0,0 l/m 0 min 2 min 33 W/m 45,1 km/h (6 Bft) 93,62 %
31.01.2018 10:20 9,4 C 9,4 C 7,8 C 92 % 0 lf 1006,8 hPa 0,0 l/m 0 min 2 min 46 W/m 42,8 km/h (6 Bft) 91,38 %
31.01.2018 10:22 9,5 C 9,4 C 7,8 C 92 % 0 lf 1006,7 hPa 0,0 l/m 0 min 2 min 53 W/m 49,6 km/h (6 Bft) 97,14 %
31.01.2018 10:24 9,5 C 9,4 C 7,8 C 92 % 0 lf 1006,6 hPa 0,0 l/m 0 min 2 min 50 W/m 33,8 km/h (5 Bft) 91,49 %
31.01.2018 10:26 9,5 C 9,4 C 7,8 C 92 % 0 lf 1006,6 hPa 0,0 l/m 0 min 0 min 54 W/m 27,0 km/h (4 Bft) 93,62 %
31.01.2018 10:28 9,5 C 9,4 C 7,8 C 92 % 0 lf 1006,6 hPa 0,0 l/m 0 min 0 min 46 W/m 38,3 km/h (5 Bft) 95,74 %
31.01.2018 10:30 9,5 C 9,4 C 7,8 C 92 % 0 lf 1006,7 hPa 0,0 l/m 0 min 2 min 46 W/m 33,8 km/h (5 Bft) 91,49 %
31.01.2018 10:32 9,6 C 10,0 C 7,8 C 92 % 0 lf 1006,6 hPa 0,0 l/m 0 min 0 min 69 W/m 38,3 km/h (5 Bft) 93,48 %
31.01.2018 10:34 9,6 C 10,0 C 7,8 C 92 % 0 lf 1006,6 hPa 0,0 l/m 0 min 0 min 81 W/m 36,0 km/h (5 Bft) 91,49 %
31.01.2018 10:36 9,6 C 10,0 C 7,8 C 92 % 0 lf 1006,5 hPa 0,0 l/m 0 min 0 min 87 W/m 33,8 km/h (5 Bft) 89,36 %
31.01.2018 10:38 9,6 C 10,0 C 7,8 C 91 % 0 lf 1006,5 hPa 0,0 l/m 0 min 2 min 88 W/m 40,6 km/h (6 Bft) 93,62 %
31.01.2018 10:40 9,6 C 10,0 C 7,8 C 91 % 0 lf 1006,4 hPa 0,0 l/m 0 min 0 min 72 W/m 33,8 km/h (5 Bft) 93,62 %
31.01.2018 10:42 9,6 C 10,0 C 7,8 C 91 % 0 lf 1006,3 hPa 0,0 l/m 0 min 0 min 77 W/m 45,1 km/h (6 Bft) 89,13 %
31.01.2018 10:44 9,6 C 10,0 C 7,8 C 91 % 0 lf 1006,5 hPa 0,0 l/m 0 min 2 min 72 W/m 49,6 km/h (6 Bft) 93,62 %
31.01.2018 10:46 9,7 C 10,0 C 7,8 C 91 % 0 lf 1006,3 hPa 0,0 l/m 0 min 2 min 78 W/m 45,1 km/h (6 Bft) 95,74 %
31.01.2018 10:48 9,7 C 10,0 C 7,8 C 91 % 0 lf 1006,4 hPa 0,0 l/m 0 min 2 min 81 W/m 40,6 km/h (6 Bft) 95,74 %
31.01.2018 10:50 9,7 C 10,0 C 7,8 C 91 % 0 lf 1006,3 hPa 0,0 l/m 0 min 2 min 79 W/m 36,0 km/h (5 Bft) 98,28 %
31.01.2018 10:52 9,7 C 10,0 C 7,8 C 91 % 0 lf 1006,2 hPa 0,0 l/m 0 min 2 min 74 W/m 45,1 km/h (6 Bft) 94,44 %
31.01.2018 10:54 9,7 C 10,0 C 7,8 C 90 % 0 lf 1006,3 hPa 0,0 l/m 0 min 0 min 69 W/m 38,3 km/h (5 Bft) 95,65 %
31.01.2018 10:56 9,7 C 10,0 C 7,8 C 90 % 0 lf 1006,2 hPa 0,0 l/m 0 min 2 min 75 W/m 33,8 km/h (5 Bft) 95,74 %
31.01.2018 10:58 9,7 C 10,0 C 7,8 C 90 % 0 lf 1006,1 hPa 0,0 l/m 0 min 2 min 67 W/m 45,1 km/h (6 Bft) 95,74 %
31.01.2018 11:00 9,7 C 10,0 C 7,8 C 90 % 0 lf 1006,1 hPa 0,0 l/m 0 min 0 min 60 W/m 27,0 km/h (4 Bft) 93,62 %
31.01.2018 11:02 9,7 C 10,0 C 7,8 C 90 % 0 lf 1006,1 hPa 0,0 l/m 0 min 0 min 65 W/m 29,3 km/h (5 Bft) 95,74 %
31.01.2018 11:04 9,7 C 10,0 C 7,8 C 90 % 0 lf 1005,9 hPa 0,0 l/m 0 min 2 min 65 W/m 40,6 km/h (6 Bft) 95,74 %
31.01.2018 11:06 9,7 C 10,0 C 7,8 C 90 % 0 lf 1006,0 hPa 0,0 l/m 0 min 2 min 69 W/m 31,5 km/h (5 Bft) 95,65 %
31.01.2018 11:08 9,7 C 10,0 C 7,8 C 90 % 0 lf 1005,9 hPa 0,0 l/m 0 min 0 min 57 W/m 29,3 km/h (5 Bft) 93,62 %
31.01.2018 11:10 9,6 C 9,4 C 7,8 C 90 % 0 lf 1005,9 hPa 0,0 l/m 0 min 0 min 54 W/m 38,3 km/h (5 Bft) 93,62 %
31.01.2018 11:12 9,6 C 9,4 C 7,8 C 90 % 0 lf 1006,2 hPa 0,0 l/m 0 min 2 min 54 W/m 51,8 km/h (7 Bft) 91,49 %
31.01.2018 11:14 9,6 C 9,4 C 7,8 C 90 % 1 lf 1006,0 hPa 0,0 l/m 0 min 2 min 59 W/m 56,3 km/h (7 Bft) 95,74 %
31.01.2018 11:16 9,6 C 8,9 C 7,8 C 90 % 1 lf 1006,0 hPa 0,0 l/m 0 min 2 min 61 W/m 49,6 km/h (6 Bft) 93,62 %
31.01.2018 11:18 9,5 C 8,9 C 7,2 C 90 % 1 lf 1006,0 hPa 0,0 l/m 0 min 2 min 59 W/m 33,8 km/h (5 Bft) 97,83 %
31.01.2018 11:20 9,5 C 8,9 C 7,2 C 90 % 1 lf 1006,0 hPa 0,0 l/m 0 min 0 min 54 W/m 42,8 km/h (6 Bft) 98,31 %
31.01.2018 11:22 9,4 C 8,9 C 7,2 C 91 % 2 lf 1006,0 hPa 0,0 l/m 0 min 0 min 48 W/m 24,8 km/h (4 Bft) 97,14 %
31.01.2018 11:24 9,4 C 8,9 C 7,2 C 91 % 2 lf 1005,8 hPa 0,0 l/m 0 min 0 min 49 W/m 45,1 km/h (6 Bft) 95,74 %
31.01.2018 11:26 9,3 C 8,9 C 7,2 C 91 % 2 lf 1006,0 hPa 0,0 l/m 0 min 2 min 53 W/m 49,6 km/h (6 Bft) 97,87 %
31.01.2018 11:28 9,3 C 8,3 C 7,2 C 91 % 1 lf 1005,9 hPa 0,0 l/m 0 min 2 min 57 W/m 33,8 km/h (5 Bft) 95,74 %
31.01.2018 11:30 9,3 C 8,3 C 7,2 C 91 % 1 lf 1005,9 hPa 0,0 l/m 0 min 0 min 46 W/m 45,1 km/h (6 Bft) 97,83 %
31.01.2018 11:32 9,2 C 8,3 C 7,2 C 92 % 0 lf 1005,8 hPa 0,0 l/m 0 min 2 min 48 W/m 40,6 km/h (6 Bft) 95,74 %
31.01.2018 11:34 9,2 C 8,3 C 7,2 C 92 % 0 lf 1005,7 hPa 0,0 l/m 0 min 0 min 46 W/m 47,3 km/h (6 Bft) 100,00 %
31.01.2018 11:36 9,2 C 8,3 C 7,2 C 92 % 1 lf 1005,7 hPa 0,0 l/m 0 min 2 min 40 W/m 36,0 km/h (5 Bft) 100,00 %
31.01.2018 11:38 9,1 C 8,3 C 7,2 C 92 % 1 lf 1005,6 hPa 0,0 l/m 0 min 2 min 35 W/m 38,3 km/h (5 Bft) 95,74 %
31.01.2018 11:40 9,1 C 8,3 C 7,2 C 92 % 0 lf 1005,7 hPa 0,0 l/m 0 min 2 min 35 W/m 49,6 km/h (6 Bft) 93,62 %
31.01.2018 11:42 9,1 C 8,9 C 7,2 C 92 % 0 lf 1005,6 hPa 0,0 l/m 0 min 2 min 38 W/m 38,3 km/h (5 Bft) 100,00 %
31.01.2018 11:44 9,1 C 8,9 C 7,2 C 92 % 0 lf 1005,6 hPa 0,0 l/m 0 min 0 min 54 W/m 36,0 km/h (5 Bft) 100,00 %
31.01.2018 11:46 9,1 C 8,9 C 7,2 C 92 % 0 lf 1005,6 hPa 0,0 l/m 0 min 0 min 73 W/m 38,3 km/h (5 Bft) 97,87 %
31.01.2018 11:48 9,1 C 8,9 C 7,2 C 92 % 2 lf 1005,5 hPa 0,0 l/m 0 min 2 min 57 W/m 47,3 km/h (6 Bft) 100,00 %
31.01.2018 11:50 9,1 C 8,3 C 7,2 C 92 % 2 lf 1005,5 hPa 0,0 l/m 0 min 2 min 45 W/m 31,5 km/h (5 Bft) 98,28 %
31.01.2018 11:52 9,1 C 8,3 C 7,2 C 92 % 3 lf 1005,5 hPa 0,0 l/m 0 min 0 min 41 W/m 29,3 km/h (5 Bft) 100,00 %
31.01.2018 11:54 9,1 C 8,3 C 7,2 C 92 % 2 lf 1005,5 hPa 0,0 l/m 0 min 0 min 50 W/m 33,8 km/h (5 Bft) 95,74 %
31.01.2018 11:56 9,0 C 8,3 C 7,2 C 92 % 2 lf 1005,4 hPa 0,0 l/m 0 min 0 min 51 W/m 31,5 km/h (5 Bft) 100,00 %
31.01.2018 11:58 9,0 C 8,3 C 7,2 C 92 % 2 lf 1005,2 hPa 0,0 l/m 0 min 0 min 49 W/m 38,3 km/h (5 Bft) 100,00 %
31.01.2018 12:00 9,0 C 8,3 C 7,2 C 93 % 2 lf 1005,1 hPa 0,0 l/m 0 min 2 min 54 W/m 47,3 km/h (6 Bft) 100,00 %
31.01.2018 12:02 8,9 C 8,3 C 7,2 C 93 % 1 lf 1005,0 hPa 0,0 l/m 0 min 2 min 50 W/m 45,1 km/h (6 Bft) 95,74 %
31.01.2018 12:04 8,9 C 8,3 C 7,2 C 93 % 1 lf 1005,0 hPa 0,0 l/m 0 min 2 min 49 W/m 40,6 km/h (6 Bft) 100,00 %
31.01.2018 12:08 8,9 C 8,3 C 7,2 C 93 % 0 lf 1004,9 hPa 0,0 l/m 0 min 0 min 40 W/m 45,1 km/h (6 Bft) 97,92 %
31.01.2018 12:10 8,9 C 8,3 C 7,2 C 93 % 0 lf 1005,0 hPa 0,0 l/m 0 min 0 min 39 W/m 38,3 km/h (5 Bft) 97,87 %
31.01.2018 12:12 8,9 C 8,3 C 7,2 C 93 % 1 lf 1004,8 hPa 0,0 l/m 0 min 2 min 36 W/m 42,8 km/h (6 Bft) 95,74 %
31.01.2018 12:14 8,9 C 8,3 C 7,2 C 93 % 0 lf 1004,9 hPa 0,0 l/m 0 min 0 min 37 W/m 38,3 km/h (5 Bft) 97,83 %
31.01.2018 12:16 8,9 C 8,3 C 7,2 C 93 % 2 lf 1004,8 hPa 0,0 l/m 0 min 2 min 39 W/m 40,6 km/h (6 Bft) 97,87 %
31.01.2018 12:18 8,9 C 8,3 C 7,2 C 93 % 3 lf 1004,8 hPa 0,0 l/m 0 min 0 min 38 W/m 49,6 km/h (6 Bft) 97,87 %
31.01.2018 12:20 8,9 C 8,3 C 7,2 C 93 % 3 lf 1004,7 hPa 0,0 l/m 0 min 2 min 46 W/m 47,3 km/h (6 Bft) 97,87 %
31.01.2018 12:22 8,9 C 8,3 C 7,2 C 93 % 3 lf 1004,7 hPa 0,0 l/m 0 min 2 min 57 W/m 45,1 km/h (6 Bft) 95,74 %
31.01.2018 12:24 8,8 C 8,3 C 7,2 C 93 % 4 lf 1004,6 hPa 0,0 l/m 0 min 2 min 64 W/m 45,1 km/h (6 Bft) 97,87 %
31.01.2018 12:26 8,8 C 8,3 C 7,2 C 93 % 13 lf 1004,6 hPa 0,0 l/m 0 min 2 min 63 W/m 49,6 km/h (6 Bft) 95,65 %
31.01.2018 12:28 8,8 C 8,3 C 7,2 C 93 % 14 lf 1004,6 hPa 0,0 l/m 0 min 2 min 50 W/m 42,8 km/h (6 Bft) 97,87 %
31.01.2018 12:30 8,8 C 8,3 C 7,2 C 93 % 15 lf 1004,6 hPa 0,0 l/m 0 min 0 min 46 W/m 36,0 km/h (5 Bft) 97,87 %
31.01.2018 12:32 8,8 C 8,3 C 7,2 C 93 % 15 lf 1004,4 hPa 0,0 l/m 0 min 0 min 49 W/m 40,6 km/h (6 Bft) 95,74 %
31.01.2018 12:34 8,8 C 8,3 C 7,2 C 93 % 15 lf 1004,4 hPa 0,0 l/m 0 min 2 min 45 W/m 38,3 km/h (5 Bft) 95,74 %
31.01.2018 12:36 8,7 C 8,3 C 7,2 C 93 % 14 lf 1004,3 hPa 0,0 l/m 0 min 0 min 45 W/m 38,3 km/h (5 Bft) 97,87 %
31.01.2018 12:38 8,7 C 8,3 C 6,7 C 93 % 14 lf 1004,2 hPa 0,0 l/m 0 min 2 min 40 W/m 38,3 km/h (5 Bft) 100,00 %
31.01.2018 12:40 8,7 C 8,3 C 6,7 C 93 % 12 lf 1004,1 hPa 0,0 l/m 0 min 2 min 35 W/m 38,3 km/h (5 Bft) 97,87 %
31.01.2018 12:42 8,7 C 8,3 C 6,7 C 93 % 9 lf 1004,1 hPa 0,0 l/m 0 min 2 min 35 W/m 36,0 km/h (5 Bft) 95,74 %
31.01.2018 12:44 8,7 C 8,9 C 6,7 C 93 % 4 lf 1004,1 hPa 0,0 l/m 0 min 2 min 39 W/m 36,0 km/h (5 Bft) 97,87 %
31.01.2018 12:46 8,7 C 8,9 C 7,2 C 93 % 2 lf 1004,1 hPa 0,0 l/m 0 min 0 min 42 W/m 33,8 km/h (5 Bft) 93,62 %
31.01.2018 12:48 8,7 C 8,9 C 7,2 C 93 % 1 lf 1003,9 hPa 0,0 l/m 0 min 0 min 39 W/m 29,3 km/h (5 Bft) 97,87 %
31.01.2018 12:50 8,7 C 8,9 C 7,2 C 93 % 0 lf 1003,8 hPa 0,0 l/m 0 min 2 min 44 W/m 49,6 km/h (6 Bft) 95,65 %
31.01.2018 12:52 8,8 C 8,9 C 7,2 C 93 % 0 lf 1003,9 hPa 0,0 l/m 0 min 2 min 46 W/m 33,8 km/h (5 Bft) 97,87 %
31.01.2018 12:54 8,8 C 8,9 C 7,2 C 93 % 0 lf 1003,7 hPa 0,0 l/m 0 min 2 min 38 W/m 33,8 km/h (5 Bft) 97,87 %
31.01.2018 12:56 8,8 C 8,9 C 7,2 C 93 % 2 lf 1003,7 hPa 0,0 l/m 0 min 2 min 36 W/m 40,6 km/h (6 Bft) 97,87 %
31.01.2018 12:58 8,8 C 8,9 C 7,2 C 93 % 3 lf 1003,7 hPa 0,0 l/m 0 min 2 min 37 W/m 42,8 km/h (6 Bft) 97,87 %
31.01.2018 13:00 8,8 C 8,3 C 6,7 C 93 % 13 lf 1003,7 hPa 0,0 l/m 0 min 2 min 40 W/m 60,8 km/h (7 Bft) 95,74 %
31.01.2018 13:02 8,9 C 8,3 C 6,7 C 92 % 15 lf 1003,7 hPa 0,0 l/m 0 min 2 min 35 W/m 40,6 km/h (6 Bft) 95,65 %
31.01.2018 13:04 8,9 C 7,8 C 6,7 C 92 % 15 lf 1003,7 hPa 0,0 l/m 0 min 2 min 39 W/m 29,3 km/h (5 Bft) 97,87 %
31.01.2018 13:06 8,9 C 7,8 C 6,7 C 92 % 15 lf 1003,7 hPa 0,0 l/m 0 min 2 min 41 W/m 36,0 km/h (5 Bft) 97,87 %
31.01.2018 13:08 8,9 C 7,8 C 6,7 C 93 % 15 lf 1003,7 hPa 0,0 l/m 0 min 2 min 52 W/m 47,3 km/h (6 Bft) 97,87 %
31.01.2018 13:10 8,8 C 7,8 C 6,7 C 93 % 15 lf 1003,6 hPa 0,0 l/m 0 min 2 min 63 W/m 38,3 km/h (5 Bft) 97,87 %
31.01.2018 13:12 8,8 C 7,8 C 6,7 C 93 % 15 lf 1003,6 hPa 0,2 l/m 0 min 2 min 67 W/m 54,1 km/h (7 Bft) 95,65 %
31.01.2018 13:14 8,8 C 7,8 C 6,7 C 93 % 15 lf 1003,6 hPa 0,0 l/m 0 min 2 min 51 W/m 24,8 km/h (4 Bft) 95,74 %
31.01.2018 13:16 8,8 C 7,8 C 6,7 C 93 % 15 lf 1003,5 hPa 0,0 l/m 0 min 2 min 42 W/m 38,3 km/h (5 Bft) 95,74 %
31.01.2018 13:18 8,7 C 7,8 C 6,7 C 93 % 15 lf 1003,5 hPa 0,2 l/m 0 min 2 min 53 W/m 40,6 km/h (6 Bft) 95,74 %
31.01.2018 13:20 8,7 C 7,8 C 6,7 C 93 % 15 lf 1003,5 hPa 0,0 l/m 0 min 2 min 46 W/m 33,8 km/h (5 Bft) 95,74 %
31.01.2018 13:22 8,7 C 7,8 C 6,7 C 93 % 15 lf 1003,4 hPa 0,0 l/m 0 min 2 min 30 W/m 42,8 km/h (6 Bft) 97,87 %
31.01.2018 13:24 8,7 C 7,8 C 6,7 C 93 % 15 lf 1003,4 hPa 0,0 l/m 0 min 2 min 23 W/m 38,3 km/h (5 Bft) 97,87 %
31.01.2018 13:26 8,7 C 7,8 C 6,7 C 93 % 15 lf 1003,3 hPa 0,2 l/m 0 min 2 min 25 W/m 36,0 km/h (5 Bft) 97,83 %
31.01.2018 13:28 8,7 C 7,8 C 6,7 C 93 % 15 lf 1003,1 hPa 0,0 l/m 0 min 2 min 32 W/m 31,5 km/h (5 Bft) 95,74 %
31.01.2018 13:30 8,6 C 7,8 C 6,7 C 93 % 15 lf 1003,0 hPa 0,2 l/m 0 min 2 min 28 W/m 29,3 km/h (5 Bft) 93,62 %
31.01.2018 13:32 8,6 C 7,8 C 6,7 C 93 % 15 lf 1003,2 hPa 0,0 l/m 0 min 2 min 21 W/m 33,8 km/h (5 Bft) 93,62 %
31.01.2018 13:34 8,6 C 7,8 C 6,7 C 94 % 15 lf 1003,2 hPa 0,2 l/m 0 min 2 min 24 W/m 36,0 km/h (5 Bft) 93,62 %
31.01.2018 13:36 8,6 C 7,8 C 6,7 C 94 % 15 lf 1003,3 hPa 0,0 l/m 0 min 2 min 17 W/m 20,3 km/h (4 Bft) 97,83 %
31.01.2018 13:38 8,6 C 7,2 C 6,7 C 94 % 15 lf 1003,4 hPa 0,2 l/m 0 min 2 min 19 W/m 33,8 km/h (5 Bft) 95,74 %
31.01.2018 13:40 8,4 C 7,2 C 6,7 C 94 % 15 lf 1003,0 hPa 0,0 l/m 0 min 2 min 30 W/m 29,3 km/h (5 Bft) 97,87 %
31.01.2018 13:42 8,4 C 7,2 C 6,7 C 94 % 15 lf 1003,0 hPa 0,2 l/m 0 min 2 min 24 W/m 29,3 km/h (5 Bft) 93,62 %
31.01.2018 13:44 8,4 C 7,2 C 6,7 C 94 % 15 lf 1003,1 hPa 0,2 l/m 0 min 2 min 38 W/m 47,3 km/h (6 Bft) 97,87 %
31.01.2018 13:46 8,3 C 7,2 C 6,7 C 94 % 15 lf 1003,0 hPa 0,0 l/m 0 min 2 min 50 W/m 54,1 km/h (7 Bft) 97,87 %
31.01.2018 13:48 8,3 C 7,2 C 6,7 C 94 % 15 lf 1003,0 hPa 0,2 l/m 0 min 2 min 55 W/m 36,0 km/h (5 Bft) 100,00 %
31.01.2018 13:50 8,3 C 7,2 C 6,7 C 94 % 15 lf 1002,9 hPa 0,0 l/m 0 min 2 min 56 W/m 51,8 km/h (7 Bft) 93,62 %
31.01.2018 13:52 8,2 C 7,2 C 6,1 C 94 % 15 lf 1002,9 hPa 0,2 l/m 0 min 2 min 55 W/m 58,6 km/h (7 Bft) 95,74 %
31.01.2018 13:54 8,2 C 7,2 C 6,1 C 94 % 15 lf 1002,9 hPa 0,0 l/m 0 min 2 min 52 W/m 54,1 km/h (7 Bft) 97,87 %
31.01.2018 13:56 8,1 C 7,2 C 6,1 C 94 % 15 lf 1002,8 hPa 0,2 l/m 0 min 2 min 52 W/m 45,1 km/h (6 Bft) 97,87 %
31.01.2018 13:58 8,1 C 7,2 C 6,1 C 94 % 15 lf 1002,8 hPa 0,0 l/m 0 min 2 min 50 W/m 38,3 km/h (5 Bft) 95,74 %
31.01.2018 14:00 8,1 C 7,2 C 6,1 C 94 % 15 lf 1002,7 hPa 0,2 l/m 0 min 2 min 47 W/m 49,6 km/h (6 Bft) 86,96 %
31.01.2018 14:02 8,0 C 6,7 C 6,1 C 94 % 15 lf 1002,8 hPa 0,0 l/m 0 min 2 min 47 W/m 47,3 km/h (6 Bft) 93,62 %
31.01.2018 14:04 8,0 C 6,7 C 6,1 C 94 % 15 lf 1002,7 hPa 0,0 l/m 0 min 2 min 47 W/m 47,3 km/h (6 Bft) 95,74 %
31.01.2018 14:06 7,9 C 6,7 C 6,1 C 94 % 15 lf 1002,6 hPa 0,0 l/m 0 min 2 min 44 W/m 42,8 km/h (6 Bft) 87,23 %
31.01.2018 14:08 7,9 C 6,7 C 6,1 C 94 % 15 lf 1002,6 hPa 0,2 l/m 0 min 2 min 41 W/m 38,3 km/h (5 Bft) 91,49 %
31.01.2018 14:10 7,9 C 6,7 C 6,1 C 93 % 15 lf 1002,6 hPa 0,0 l/m 0 min 2 min 43 W/m 36,0 km/h (5 Bft) 93,62 %
31.01.2018 14:12 7,8 C 6,7 C 6,1 C 93 % 15 lf 1002,6 hPa 0,0 l/m 0 min 2 min 46 W/m 40,6 km/h (6 Bft) 93,48 %
31.01.2018 14:14 7,8 C 6,7 C 6,1 C 93 % 15 lf 1002,5 hPa 0,0 l/m 0 min 2 min 46 W/m 45,1 km/h (6 Bft) 95,74 %
31.01.2018 14:16 7,8 C 6,7 C 6,1 C 93 % 15 lf 1002,5 hPa 0,2 l/m 0 min 2 min 44 W/m 42,8 km/h (6 Bft) 95,74 %
31.01.2018 14:18 7,8 C 6,7 C 6,1 C 93 % 15 lf 1002,5 hPa 0,0 l/m 0 min 2 min 46 W/m 36,0 km/h (5 Bft) 95,74 %
31.01.2018 14:20 7,8 C 6,7 C 6,1 C 93 % 15 lf 1002,4 hPa 0,0 l/m 0 min 2 min 47 W/m 40,6 km/h (6 Bft) 95,74 %
31.01.2018 14:22 7,8 C 6,7 C 6,1 C 93 % 15 lf 1002,3 hPa 0,0 l/m 0 min 2 min 46 W/m 36,0 km/h (5 Bft) 95,74 %
31.01.2018 14:24 7,8 C 6,7 C 6,1 C 93 % 15 lf 1002,4 hPa 0,0 l/m 0 min 2 min 46 W/m 45,1 km/h (6 Bft) 95,65 %
31.01.2018 14:26 7,8 C 6,7 C 6,1 C 93 % 15 lf 1002,2 hPa 0,0 l/m 0 min 2 min 45 W/m 33,8 km/h (5 Bft) 95,74 %
31.01.2018 14:28 7,8 C 6,7 C 6,1 C 93 % 15 lf 1002,2 hPa 0,0 l/m 0 min 2 min 45 W/m 49,6 km/h (6 Bft) 95,74 %
31.01.2018 14:30 7,8 C 6,7 C 6,1 C 93 % 15 lf 1002,2 hPa 0,0 l/m 0 min 2 min 48 W/m 38,3 km/h (5 Bft) 95,74 %
31.01.2018 14:32 7,8 C 6,7 C 6,1 C 93 % 15 lf 1002,2 hPa 0,0 l/m 0 min 2 min 42 W/m 33,8 km/h (5 Bft) 97,87 %
31.01.2018 14:34 7,8 C 6,7 C 6,1 C 93 % 15 lf 1002,1 hPa 0,0 l/m 0 min 2 min 49 W/m 31,5 km/h (5 Bft) 91,49 %
31.01.2018 14:36 7,8 C 7,2 C 6,1 C 94 % 15 lf 1002,0 hPa 0,2 l/m 0 min 2 min 53 W/m 33,8 km/h (5 Bft) 95,65 %
31.01.2018 14:38 7,8 C 7,2 C 6,1 C 94 % 15 lf 1002,0 hPa 0,0 l/m 0 min 2 min 52 W/m 24,8 km/h (4 Bft) 95,74 %
31.01.2018 14:40 7,8 C 7,2 C 6,1 C 94 % 15 lf 1002,0 hPa 0,0 l/m 0 min 2 min 50 W/m 38,3 km/h (5 Bft) 93,62 %
31.01.2018 14:42 7,8 C 7,2 C 6,1 C 94 % 15 lf 1002,0 hPa 0,0 l/m 0 min 2 min 50 W/m 31,5 km/h (5 Bft) 97,87 %
31.01.2018 14:44 7,9 C 7,2 C 6,1 C 94 % 15 lf 1001,8 hPa 0,0 l/m 0 min 2 min 45 W/m 38,3 km/h (5 Bft) 97,87 %
31.01.2018 14:46 7,8 C 7,2 C 6,1 C 94 % 15 lf 1001,9 hPa 0,0 l/m 0 min 2 min 40 W/m 47,3 km/h (6 Bft) 97,83 %
31.01.2018 14:48 7,8 C 7,2 C 6,1 C 94 % 15 lf 1001,8 hPa 0,2 l/m 0 min 2 min 33 W/m 33,8 km/h (5 Bft) 97,87 %
31.01.2018 14:50 7,9 C 7,2 C 6,1 C 94 % 15 lf 1001,7 hPa 0,0 l/m 0 min 2 min 37 W/m 33,8 km/h (5 Bft) 97,87 %
31.01.2018 14:52 7,9 C 7,2 C 6,1 C 94 % 15 lf 1001,7 hPa 0,0 l/m 0 min 2 min 37 W/m 29,3 km/h (5 Bft) 97,87 %
31.01.2018 14:54 7,9 C 7,2 C 6,1 C 94 % 15 lf 1001,6 hPa 0,0 l/m 0 min 2 min 38 W/m 42,8 km/h (6 Bft) 97,87 %
31.01.2018 14:56 7,9 C 7,2 C 6,1 C 94 % 15 lf 1001,6 hPa 0,0 l/m 0 min 2 min 40 W/m 33,8 km/h (5 Bft) 95,74 %
31.01.2018 14:58 7,9 C 7,2 C 6,1 C 94 % 15 lf 1001,7 hPa 0,2 l/m 0 min 2 min 39 W/m 42,8 km/h (6 Bft) 95,65 %
31.01.2018 15:00 7,9 C 7,2 C 6,1 C 94 % 15 lf 1001,7 hPa 0,0 l/m 0 min 2 min 36 W/m 54,1 km/h (7 Bft) 97,87 %
31.01.2018 15:02 7,9 C 7,2 C 6,1 C 94 % 15 lf 1001,6 hPa 0,0 l/m 0 min 2 min 37 W/m 54,1 km/h (7 Bft) 100,00 %
31.01.2018 15:04 7,9 C 7,2 C 6,1 C 94 % 15 lf 1001,7 hPa 0,0 l/m 0 min 2 min 35 W/m 49,6 km/h (6 Bft) 100,00 %
31.01.2018 15:06 7,9 C 7,2 C 6,1 C 94 % 15 lf 1001,6 hPa 0,0 l/m 0 min 2 min 29 W/m 38,3 km/h (5 Bft) 100,00 %
31.01.2018 15:08 7,9 C 7,2 C 6,1 C 94 % 15 lf 1001,8 hPa 0,2 l/m 0 min 2 min 20 W/m 31,5 km/h (5 Bft) 95,74 %
31.01.2018 15:10 7,9 C 7,2 C 6,1 C 94 % 15 lf 1002,0 hPa 0,0 l/m 0 min 2 min 10 W/m 33,8 km/h (5 Bft) 100,00 %
31.01.2018 15:12 7,8 C 6,7 C 6,1 C 94 % 15 lf 1002,1 hPa 0,2 l/m 0 min 2 min 18 W/m 40,6 km/h (6 Bft) 100,00 %
31.01.2018 15:14 7,7 C 6,1 C 5,6 C 94 % 15 lf 1002,0 hPa 0,0 l/m 0 min 2 min 21 W/m 40,6 km/h (6 Bft) 100,00 %
31.01.2018 15:16 7,6 C 6,1 C 5,6 C 94 % 15 lf 1001,9 hPa 0,2 l/m 0 min 2 min 19 W/m 40,6 km/h (6 Bft) 93,62 %
31.01.2018 15:18 7,4 C 6,1 C 5,6 C 94 % 15 lf 1001,9 hPa 0,0 l/m 0 min 2 min 19 W/m 29,3 km/h (5 Bft) 97,87 %
31.01.2018 15:20 7,4 C 6,1 C 5,6 C 94 % 15 lf 1001,9 hPa 0,2 l/m 0 min 2 min 23 W/m 29,3 km/h (5 Bft) 100,00 %
31.01.2018 15:22 7,3 C 6,1 C 5,6 C 94 % 15 lf 1001,9 hPa 0,2 l/m 0 min 2 min 26 W/m 31,5 km/h (5 Bft) 100,00 %
31.01.2018 15:24 7,2 C 6,1 C 5,0 C 94 % 15 lf 1001,8 hPa 0,0 l/m 0 min 2 min 27 W/m 42,8 km/h (6 Bft) 97,87 %
31.01.2018 15:26 7,1 C 6,1 C 5,0 C 94 % 15 lf 1001,7 hPa 0,2 l/m 0 min 2 min 26 W/m 45,1 km/h (6 Bft) 100,00 %
31.01.2018 15:28 7,0 C 6,1 C 5,0 C 94 % 15 lf 1001,7 hPa 0,0 l/m 0 min 2 min 24 W/m 31,5 km/h (5 Bft) 100,00 %
31.01.2018 15:30 6,9 C 5,6 C 5,0 C 94 % 15 lf 1001,7 hPa 0,2 l/m 0 min 2 min 26 W/m 27,0 km/h (4 Bft) 100,00 %
31.01.2018 15:32 6,8 C 5,6 C 5,0 C 94 % 15 lf 1001,6 hPa 0,0 l/m 0 min 2 min 28 W/m 31,5 km/h (5 Bft) 97,87 %
31.01.2018 15:34 6,8 C 5,6 C 5,0 C 94 % 15 lf 1001,6 hPa 0,0 l/m 0 min 2 min 30 W/m 29,3 km/h (5 Bft) 100,00 %
31.01.2018 15:36 6,8 C 5,6 C 5,0 C 94 % 15 lf 1001,6 hPa 0,0 l/m 0 min 2 min 29 W/m 33,8 km/h (5 Bft) 95,74 %
31.01.2018 15:38 6,7 C 5,6 C 5,0 C 94 % 15 lf 1001,5 hPa 0,2 l/m 0 min 2 min 26 W/m 20,3 km/h (4 Bft) 95,74 %
31.01.2018 15:40 6,7 C 5,6 C 5,0 C 94 % 15 lf 1001,6 hPa 0,0 l/m 0 min 2 min 24 W/m 33,8 km/h (5 Bft) 95,74 %
31.01.2018 15:42 6,7 C 5,6 C 5,0 C 94 % 15 lf 1001,4 hPa 0,0 l/m 0 min 2 min 22 W/m 31,5 km/h (5 Bft) 95,74 %
31.01.2018 15:44 6,7 C 5,6 C 5,0 C 94 % 15 lf 1001,4 hPa 0,2 l/m 0 min 2 min 21 W/m 40,6 km/h (6 Bft) 97,87 %
31.01.2018 15:46 6,6 C 5,6 C 5,0 C 94 % 15 lf 1001,3 hPa 0,0 l/m 0 min 2 min 23 W/m 36,0 km/h (5 Bft) 95,65 %
31.01.2018 15:48 6,6 C 5,6 C 5,0 C 94 % 15 lf 1001,3 hPa 0,0 l/m 0 min 2 min 22 W/m 33,8 km/h (5 Bft) 97,87 %
31.01.2018 15:50 6,6 C 5,6 C 5,0 C 94 % 15 lf 1001,3 hPa 0,0 l/m 0 min 2 min 20 W/m 40,6 km/h (6 Bft) 97,87 %
31.01.2018 15:52 6,6 C 5,6 C 5,0 C 94 % 15 lf 1001,2 hPa 0,0 l/m 0 min 2 min 20 W/m 31,5 km/h (5 Bft) 95,74 %
31.01.2018 15:54 6,6 C 5,6 C 5,0 C 94 % 15 lf 1001,2 hPa 0,2 l/m 0 min 2 min 22 W/m 33,8 km/h (5 Bft) 95,74 %
31.01.2018 15:56 6,6 C 5,6 C 5,0 C 94 % 15 lf 1001,2 hPa 0,0 l/m 0 min 2 min 25 W/m 33,8 km/h (5 Bft) 95,74 %
31.01.2018 15:58 6,6 C 5,6 C 5,0 C 94 % 15 lf 1001,2 hPa 0,0 l/m 0 min 2 min 23 W/m 33,8 km/h (5 Bft) 97,83 %
31.01.2018 16:00 6,6 C 5,6 C 5,0 C 94 % 15 lf 1001,2 hPa 0,0 l/m 0 min 2 min 21 W/m 40,6 km/h (6 Bft) 93,62 %
31.01.2018 16:02 6,6 C 5,6 C 5,0 C 94 % 15 lf 1001,1 hPa 0,0 l/m 0 min 2 min 21 W/m 38,3 km/h (5 Bft) 95,74 %
31.01.2018 16:04 6,6 C 5,6 C 5,0 C 94 % 15 lf 1001,1 hPa 0,0 l/m 0 min 2 min 21 W/m 42,8 km/h (6 Bft) 95,74 %
31.01.2018 16:06 6,6 C 5,6 C 5,0 C 94 % 15 lf 1001,0 hPa 0,2 l/m 0 min 2 min 21 W/m 38,3 km/h (5 Bft) 93,62 %
31.01.2018 16:08 6,6 C 5,6 C 5,0 C 94 % 15 lf 1001,0 hPa 0,0 l/m 0 min 2 min 21 W/m 27,0 km/h (4 Bft) 93,48 %
31.01.2018 16:10 6,6 C 5,6 C 5,0 C 94 % 15 lf 1001,0 hPa 0,0 l/m 0 min 2 min 21 W/m 31,5 km/h (5 Bft) 91,49 %
31.01.2018 16:12 6,6 C 5,6 C 5,0 C 94 % 15 lf 1001,0 hPa 0,0 l/m 0 min 2 min 23 W/m 38,3 km/h (5 Bft) 93,62 %
31.01.2018 16:14 6,5 C 5,6 C 5,0 C 94 % 15 lf 1000,9 hPa 0,0 l/m 0 min 2 min 23 W/m 33,8 km/h (5 Bft) 93,62 %
31.01.2018 16:16 6,5 C 5,6 C 5,0 C 94 % 15 lf 1001,0 hPa 0,0 l/m 0 min 2 min 23 W/m 42,8 km/h (6 Bft) 91,49 %
31.01.2018 16:18 6,5 C 5,6 C 5,0 C 94 % 15 lf 1000,9 hPa 0,0 l/m 0 min 2 min 21 W/m 33,8 km/h (5 Bft) 93,62 %
31.01.2018 16:20 6,5 C 5,6 C 5,0 C 94 % 15 lf 1000,5 hPa 0,0 l/m 0 min 2 min 19 W/m 24,8 km/h (4 Bft) 93,48 %
31.01.2018 16:22 6,5 C 5,6 C 4,4 C 93 % 15 lf 1000,5 hPa 0,0 l/m 0 min 2 min 18 W/m 29,3 km/h (5 Bft) 95,74 %
31.01.2018 16:24 6,5 C 5,6 C 4,4 C 93 % 15 lf 1000,5 hPa 0,0 l/m 0 min 2 min 18 W/m 22,5 km/h (4 Bft) 95,74 %
31.01.2018 16:26 6,4 C 5,6 C 4,4 C 93 % 15 lf 1000,5 hPa 0,0 l/m 0 min 2 min 18 W/m 27,0 km/h (4 Bft) 95,74 %
31.01.2018 16:28 6,4 C 5,6 C 4,4 C 93 % 15 lf 1000,4 hPa 0,0 l/m 0 min 2 min 17 W/m 22,5 km/h (4 Bft) 95,74 %
31.01.2018 16:30 6,4 C 5,6 C 4,4 C 93 % 15 lf 1000,3 hPa 0,0 l/m 0 min 2 min 14 W/m 27,0 km/h (4 Bft) 93,62 %
31.01.2018 16:32 6,4 C 5,6 C 4,4 C 93 % 15 lf 1000,3 hPa 0,0 l/m 0 min 2 min 12 W/m 38,3 km/h (5 Bft) 93,48 %
31.01.2018 16:34 6,4 C 5,6 C 4,4 C 93 % 15 lf 1000,2 hPa 0,0 l/m 0 min 2 min 11 W/m 29,3 km/h (5 Bft) 93,62 %
31.01.2018 16:36 6,4 C 5,6 C 4,4 C 93 % 15 lf 1000,1 hPa 0,0 l/m 0 min 2 min 11 W/m 33,8 km/h (5 Bft) 95,74 %
31.01.2018 16:38 6,4 C 5,6 C 4,4 C 93 % 15 lf 1000,1 hPa 0,0 l/m 0 min 2 min 9 W/m 38,3 km/h (5 Bft) 97,87 %
31.01.2018 16:40 6,4 C 5,6 C 4,4 C 93 % 15 lf 1000,2 hPa 0,0 l/m 0 min 2 min 8 W/m 40,6 km/h (6 Bft) 97,87 %
31.01.2018 16:42 6,3 C 5,6 C 4,4 C 93 % 15 lf 1000,2 hPa 0,0 l/m 0 min 2 min 7 W/m 31,5 km/h (5 Bft) 95,74 %
31.01.2018 16:44 6,3 C 5,6 C 4,4 C 93 % 15 lf 1000,2 hPa 0,0 l/m 0 min 2 min 7 W/m 36,0 km/h (5 Bft) 97,83 %
31.01.2018 16:46 6,3 C 5,6 C 4,4 C 93 % 15 lf 1000,2 hPa 0,0 l/m 0 min 0 min 7 W/m 29,3 km/h (5 Bft) 95,74 %
31.01.2018 16:48 6,3 C 5,6 C 4,4 C 93 % 15 lf 1000,2 hPa 0,0 l/m 0 min 2 min 7 W/m 24,8 km/h (4 Bft) 97,87 %
31.01.2018 16:50 6,3 C 5,6 C 4,4 C 93 % 15 lf 1000,1 hPa 0,0 l/m 0 min 2 min 7 W/m 36,0 km/h (5 Bft) 95,74 %
31.01.2018 16:52 6,3 C 5,0 C 4,4 C 92 % 15 lf 1000,1 hPa 0,0 l/m 0 min 2 min 6 W/m 38,3 km/h (5 Bft) 100,00 %
31.01.2018 16:54 6,3 C 5,6 C 4,4 C 92 % 15 lf 999,9 hPa 0,0 l/m 0 min 2 min 5 W/m 27,0 km/h (4 Bft) 97,87 %
31.01.2018 16:56 6,2 C 5,0 C 4,4 C 92 % 15 lf 999,9 hPa 0,0 l/m 0 min 2 min 4 W/m 29,3 km/h (5 Bft) 97,83 %
31.01.2018 16:58 6,2 C 5,6 C 4,4 C 92 % 14 lf 999,9 hPa 0,0 l/m 0 min 2 min 0 W/m 38,3 km/h (5 Bft) 100,00 %
31.01.2018 17:00 6,2 C 5,0 C 4,4 C 91 % 14 lf 999,9 hPa 0,0 l/m 0 min 0 min 0 W/m 20,3 km/h (4 Bft) 97,87 %
31.01.2018 17:02 6,2 C 5,0 C 4,4 C 91 % 14 lf 999,9 hPa 0,0 l/m 0 min 2 min 0 W/m 36,0 km/h (5 Bft) 100,00 %
31.01.2018 17:04 6,2 C 5,0 C 4,4 C 91 % 13 lf 999,9 hPa 0,0 l/m 0 min 2 min 0 W/m 29,3 km/h (5 Bft) 100,00 %
31.01.2018 17:06 6,2 C 5,0 C 3,9 C 91 % 14 lf 1000,0 hPa 0,0 l/m 0 min 2 min 0 W/m 42,8 km/h (6 Bft) 100,00 %
31.01.2018 17:08 6,2 C 5,0 C 3,9 C 91 % 14 lf 1000,0 hPa 0,0 l/m 0 min 2 min 0 W/m 42,8 km/h (6 Bft) 100,00 %
31.01.2018 17:10 6,2 C 5,0 C 3,9 C 91 % 14 lf 1000,1 hPa 0,0 l/m 0 min 2 min 0 W/m 45,1 km/h (6 Bft) 100,00 %
31.01.2018 17:12 6,2 C 5,0 C 3,9 C 90 % 15 lf 999,9 hPa 0,0 l/m 0 min 2 min 0 W/m 31,5 km/h (5 Bft) 100,00 %
31.01.2018 17:14 6,2 C 5,0 C 3,9 C 90 % 15 lf 999,8 hPa 0,0 l/m 0 min 2 min 0 W/m 47,3 km/h (6 Bft) 100,00 %
31.01.2018 17:16 6,2 C 5,0 C 3,9 C 90 % 15 lf 999,8 hPa 0,0 l/m 0 min 2 min 0 W/m 38,3 km/h (5 Bft) 100,00 %
31.01.2018 17:18 6,2 C 5,0 C 3,9 C 90 % 15 lf 999,8 hPa 0,0 l/m 0 min 2 min 0 W/m 40,6 km/h (6 Bft) 97,87 %
31.01.2018 17:20 6,2 C 5,0 C 3,9 C 90 % 15 lf 999,8 hPa 0,0 l/m 0 min 2 min 0 W/m 36,0 km/h (5 Bft) 100,00 %
31.01.2018 17:22 6,2 C 5,0 C 3,9 C 90 % 15 lf 999,9 hPa 0,0 l/m 0 min 2 min 0 W/m 31,5 km/h (5 Bft) 100,00 %
31.01.2018 17:24 6,2 C 5,0 C 3,9 C 90 % 15 lf 999,9 hPa 0,0 l/m 0 min 2 min 0 W/m 38,3 km/h (5 Bft) 100,00 %
31.01.2018 17:26 6,2 C 5,0 C 3,9 C 89 % 15 lf 999,9 hPa 0,0 l/m 0 min 2 min 0 W/m 45,1 km/h (6 Bft) 97,87 %
31.01.2018 17:28 6,2 C 5,0 C 3,9 C 89 % 15 lf 999,8 hPa 0,0 l/m 0 min 2 min 0 W/m 31,5 km/h (5 Bft) 100,00 %
31.01.2018 17:30 6,2 C 5,0 C 3,9 C 89 % 15 lf 999,8 hPa 0,0 l/m 0 min 2 min 0 W/m 27,0 km/h (4 Bft) 97,83 %
31.01.2018 17:32 6,2 C 5,0 C 3,9 C 89 % 15 lf 999,7 hPa 0,0 l/m 0 min 2 min 0 W/m 33,8 km/h (5 Bft) 97,87 %
31.01.2018 17:34 6,1 C 5,0 C 3,9 C 89 % 14 lf 999,8 hPa 0,0 l/m 0 min 2 min 0 W/m 31,5 km/h (5 Bft) 100,00 %
31.01.2018 17:36 6,1 C 5,0 C 3,9 C 90 % 15 lf 999,8 hPa 0,0 l/m 0 min 2 min 0 W/m 27,0 km/h (4 Bft) 100,00 %
31.01.2018 17:38 6,1 C 5,0 C 3,9 C 90 % 15 lf 999,8 hPa 0,0 l/m 0 min 2 min 0 W/m 29,3 km/h (5 Bft) 100,00 %
31.01.2018 17:40 6,1 C 5,0 C 3,9 C 90 % 15 lf 999,8 hPa 0,0 l/m 0 min 2 min 0 W/m 27,0 km/h (4 Bft) 100,00 %
31.01.2018 17:42 6,1 C 5,0 C 3,9 C 90 % 15 lf 999,9 hPa 0,2 l/m 0 min 2 min 0 W/m 29,3 km/h (5 Bft) 97,83 %
31.01.2018 17:44 6,1 C 5,0 C 3,9 C 90 % 15 lf 999,8 hPa 0,0 l/m 0 min 2 min 0 W/m 24,8 km/h (4 Bft) 97,87 %
31.01.2018 17:46 6,1 C 5,0 C 3,9 C 90 % 15 lf 999,9 hPa 0,0 l/m 0 min 2 min 0 W/m 18,0 km/h (3 Bft) 95,74 %
31.01.2018 17:48 6,1 C 5,0 C 3,9 C 90 % 15 lf 1000,0 hPa 0,0 l/m 0 min 2 min 0 W/m 29,3 km/h (5 Bft) 100,00 %
31.01.2018 17:50 6,1 C 5,0 C 3,9 C 90 % 15 lf 1000,0 hPa 0,0 l/m 0 min 2 min 0 W/m 27,0 km/h (4 Bft) 97,87 %
31.01.2018 17:52 6,1 C 5,0 C 3,9 C 90 % 15 lf 1000,0 hPa 0,0 l/m 0 min 2 min 0 W/m 22,5 km/h (4 Bft) 97,87 %
31.01.2018 17:54 6,1 C 5,0 C 3,9 C 90 % 15 lf 1000,1 hPa 0,0 l/m 0 min 2 min 0 W/m 29,3 km/h (5 Bft) 95,65 %
31.01.2018 17:56 6,0 C 5,0 C 3,9 C 90 % 15 lf 1000,1 hPa 0,0 l/m 0 min 2 min 0 W/m 27,0 km/h (4 Bft) 95,74 %
31.01.2018 17:58 6,0 C 5,0 C 3,9 C 90 % 15 lf 1000,2 hPa 0,0 l/m 0 min 2 min 0 W/m 33,8 km/h (5 Bft) 91,49 %
31.01.2018 18:00 6,0 C 5,0 C 3,9 C 90 % 15 lf 1000,3 hPa 0,0 l/m 0 min 2 min 0 W/m 38,3 km/h (5 Bft) 95,74 %
31.01.2018 18:02 5,9 C 4,4 C 3,9 C 90 % 15 lf 1000,4 hPa 0,0 l/m 0 min 2 min 0 W/m 33,8 km/h (5 Bft) 95,74 %
31.01.2018 18:04 5,8 C 4,4 C 3,3 C 90 % 15 lf 1000,4 hPa 0,0 l/m 0 min 2 min 0 W/m 33,8 km/h (5 Bft) 95,74 %
31.01.2018 18:06 5,7 C 4,4 C 3,3 C 90 % 15 lf 1000,5 hPa 0,0 l/m 0 min 2 min 0 W/m 36,0 km/h (5 Bft) 97,87 %
31.01.2018 18:08 5,6 C 4,4 C 3,3 C 90 % 15 lf 1000,6 hPa 0,2 l/m 0 min 2 min 0 W/m 20,3 km/h (4 Bft) 94,29 %
31.01.2018 18:10 5,6 C 4,4 C 3,3 C 90 % 15 lf 1000,7 hPa 0,0 l/m 0 min 2 min 0 W/m 20,3 km/h (4 Bft) 96,61 %
31.01.2018 18:12 5,4 C 3,9 C 3,3 C 91 % 15 lf 1000,6 hPa 0,0 l/m 0 min 2 min 0 W/m 29,3 km/h (5 Bft) 95,74 %
31.01.2018 18:14 5,4 C 3,9 C 3,3 C 91 % 15 lf 1000,5 hPa 0,0 l/m 0 min 2 min 0 W/m 13,5 km/h (3 Bft) 93,62 %
31.01.2018 18:16 5,3 C 3,9 C 3,3 C 91 % 15 lf 1000,5 hPa 0,0 l/m 0 min 2 min 0 W/m 22,5 km/h (4 Bft) 95,65 %
31.01.2018 18:18 5,3 C 3,9 C 3,3 C 91 % 15 lf 1000,4 hPa 0,0 l/m 0 min 2 min 0 W/m 22,5 km/h (4 Bft) 95,74 %
31.01.2018 18:20 5,2 C 3,9 C 3,3 C 91 % 15 lf 1000,5 hPa 0,0 l/m 0 min 2 min 0 W/m 20,3 km/h (4 Bft) 95,74 %
31.01.2018 18:22 5,2 C 3,9 C 3,3 C 91 % 15 lf 1000,5 hPa 0,0 l/m 0 min 2 min 0 W/m 18,0 km/h (3 Bft) 97,87 %
31.01.2018 18:24 5,1 C 3,9 C 3,3 C 91 % 15 lf 1000,5 hPa 0,0 l/m 0 min 2 min 0 W/m 15,8 km/h (3 Bft) 93,62 %
31.01.2018 18:26 5,1 C 3,9 C 3,3 C 91 % 15 lf 1000,5 hPa 0,0 l/m 0 min 0 min 0 W/m 13,5 km/h (3 Bft) 97,87 %
31.01.2018 18:28 5,1 C 3,9 C 3,3 C 92 % 15 lf 1000,4 hPa 0,0 l/m 0 min 2 min 0 W/m 13,5 km/h (3 Bft) 95,65 %
31.01.2018 18:30 5,0 C 3,9 C 3,3 C 92 % 15 lf 1000,4 hPa 0,0 l/m 0 min 2 min 0 W/m 20,3 km/h (4 Bft) 95,74 %
31.01.2018 18:32 4,9 C 3,9 C 3,3 C 92 % 15 lf 1000,4 hPa 0,0 l/m 0 min 2 min 0 W/m 20,3 km/h (4 Bft) 95,74 %
31.01.2018 18:34 4,9 C 3,9 C 3,3 C 92 % 15 lf 1000,4 hPa 0,0 l/m 0 min 2 min 0 W/m 22,5 km/h (4 Bft) 93,62 %
31.01.2018 18:36 4,9 C 3,9 C 3,3 C 92 % 15 lf 1000,5 hPa 0,0 l/m 0 min 2 min 0 W/m 11,3 km/h (2 Bft) 95,74 %
31.01.2018 18:38 4,8 C 3,9 C 3,3 C 92 % 15 lf 1000,4 hPa 0,0 l/m 0 min 2 min 0 W/m 18,0 km/h (3 Bft) 95,74 %
31.01.2018 18:40 4,8 C 3,9 C 3,3 C 92 % 15 lf 1000,3 hPa 0,0 l/m 0 min 2 min 0 W/m 18,0 km/h (3 Bft) 93,48 %
31.01.2018 18:42 4,7 C 3,9 C 3,3 C 93 % 15 lf 1000,3 hPa 0,2 l/m 0 min 2 min 0 W/m 20,3 km/h (4 Bft) 91,49 %
31.01.2018 18:44 4,7 C 3,9 C 3,3 C 93 % 15 lf 1000,4 hPa 0,0 l/m 0 min 2 min 0 W/m 20,3 km/h (4 Bft) 93,62 %
31.01.2018 18:46 4,7 C 3,9 C 3,3 C 93 % 15 lf 1000,3 hPa 0,0 l/m 0 min 2 min 0 W/m 20,3 km/h (4 Bft) 87,23 %
31.01.2018 18:48 4,7 C 3,9 C 2,8 C 93 % 15 lf 1000,3 hPa 0,0 l/m 0 min 2 min 0 W/m 20,3 km/h (4 Bft) 93,62 %
31.01.2018 18:50 4,6 C 3,9 C 2,8 C 93 % 15 lf 1000,2 hPa 0,2 l/m 0 min 2 min 0 W/m 20,3 km/h (4 Bft) 87,23 %
31.01.2018 18:52 4,6 C 3,9 C 2,8 C 93 % 15 lf 1000,2 hPa 0,0 l/m 0 min 2 min 0 W/m 18,0 km/h (3 Bft) 93,48 %
31.01.2018 18:54 4,6 C 3,9 C 2,8 C 93 % 15 lf 1000,2 hPa 0,0 l/m 0 min 2 min 0 W/m 18,0 km/h (3 Bft) 93,62 %
31.01.2018 18:56 4,6 C 3,9 C 2,8 C 93 % 15 lf 1000,1 hPa 0,0 l/m 0 min 2 min 0 W/m 15,8 km/h (3 Bft) 91,49 %
31.01.2018 18:58 4,5 C 3,9 C 2,8 C 93 % 15 lf 1000,0 hPa 0,0 l/m 0 min 2 min 0 W/m 18,0 km/h (3 Bft) 93,62 %
31.01.2018 19:00 4,5 C 3,3 C 2,8 C 93 % 15 lf 999,9 hPa 0,0 l/m 0 min 2 min 0 W/m 15,8 km/h (3 Bft) 93,62 %
31.01.2018 19:02 4,4 C 3,3 C 2,8 C 93 % 15 lf 1000,0 hPa 0,2 l/m 0 min 2 min 0 W/m 15,8 km/h (3 Bft) 93,48 %
31.01.2018 19:04 4,4 C 3,3 C 2,8 C 94 % 15 lf 999,9 hPa 0,0 l/m 0 min 0 min 0 W/m 13,5 km/h (3 Bft) 91,49 %
31.01.2018 19:06 4,4 C 3,3 C 2,8 C 94 % 15 lf 999,7 hPa 0,0 l/m 0 min 2 min 0 W/m 15,8 km/h (3 Bft) 95,74 %
31.01.2018 19:08 4,4 C 3,3 C 2,8 C 94 % 15 lf 999,7 hPa 0,0 l/m 0 min 0 min 0 W/m 13,5 km/h (3 Bft) 91,49 %
31.01.2018 19:10 4,4 C 3,3 C 2,8 C 94 % 15 lf 999,7 hPa 0,0 l/m 0 min 0 min 0 W/m 9,0 km/h (2 Bft) 95,74 %
31.01.2018 19:12 4,3 C 3,3 C 2,8 C 94 % 15 lf 999,6 hPa 0,0 l/m 0 min 0 min 0 W/m 15,8 km/h (3 Bft) 95,74 %
31.01.2018 19:14 4,3 C 3,3 C 2,8 C 94 % 15 lf 999,6 hPa 0,0 l/m 0 min 0 min 0 W/m 15,8 km/h (3 Bft) 95,65 %
31.01.2018 19:16 4,3 C 3,3 C 2,8 C 94 % 15 lf 999,6 hPa 0,0 l/m 0 min 0 min 0 W/m 15,8 km/h (3 Bft) 95,74 %
31.01.2018 19:18 4,3 C 3,3 C 2,8 C 94 % 15 lf 999,6 hPa 0,0 l/m 0 min 0 min 0 W/m 11,3 km/h (2 Bft) 93,62 %
31.01.2018 19:20 4,3 C 3,3 C 2,8 C 94 % 15 lf 999,6 hPa 0,0 l/m 0 min 0 min 0 W/m 11,3 km/h (2 Bft) 95,74 %
31.01.2018 19:22 4,2 C 3,3 C 2,8 C 94 % 15 lf 999,6 hPa 0,0 l/m 0 min 0 min 0 W/m 11,3 km/h (2 Bft) 97,87 %
31.01.2018 19:24 4,2 C 3,3 C 2,8 C 94 % 15 lf 999,7 hPa 0,0 l/m 0 min 0 min 0 W/m 13,5 km/h (3 Bft) 100,00 %
31.01.2018 19:26 4,2 C 3,3 C 2,8 C 94 % 15 lf 999,7 hPa 0,0 l/m 0 min 0 min 0 W/m 11,3 km/h (2 Bft) 95,65 %
31.01.2018 19:28 4,2 C 3,3 C 2,8 C 94 % 15 lf 999,7 hPa 0,0 l/m 0 min 0 min 0 W/m 11,3 km/h (2 Bft) 97,87 %
31.01.2018 19:30 4,2 C 3,3 C 2,8 C 94 % 15 lf 999,7 hPa 0,0 l/m 0 min 0 min 0 W/m 13,5 km/h (3 Bft) 97,87 %
31.01.2018 19:32 4,2 C 3,3 C 2,8 C 94 % 15 lf 999,7 hPa 0,0 l/m 0 min 0 min 0 W/m 9,0 km/h (2 Bft) 95,74 %
31.01.2018 19:34 4,2 C 3,3 C 2,8 C 94 % 15 lf 999,6 hPa 0,0 l/m 0 min 0 min 0 W/m 11,3 km/h (2 Bft) 100,00 %
31.01.2018 19:36 4,2 C 3,3 C 2,8 C 94 % 15 lf 999,6 hPa 0,0 l/m 0 min 0 min 0 W/m 6,8 km/h (2 Bft) 100,00 %
31.01.2018 19:38 4,1 C 3,3 C 2,8 C 94 % 15 lf 999,7 hPa 0,0 l/m 0 min 0 min 0 W/m 11,3 km/h (2 Bft) 100,00 %
31.01.2018 19:40 4,1 C 3,3 C 2,8 C 94 % 15 lf 999,6 hPa 0,0 l/m 0 min 0 min 0 W/m 9,0 km/h (2 Bft) 97,87 %
31.01.2018 19:42 4,1 C 3,3 C 2,8 C 94 % 15 lf 999,7 hPa 0,0 l/m 0 min 0 min 0 W/m 9,0 km/h (2 Bft) 95,74 %
31.01.2018 19:44 4,1 C 3,3 C 2,8 C 94 % 15 lf 999,6 hPa 0,0 l/m 0 min 0 min 0 W/m 15,8 km/h (3 Bft) 95,74 %
31.01.2018 19:46 4,1 C 3,3 C 2,8 C 94 % 15 lf 999,7 hPa 0,0 l/m 0 min 0 min 0 W/m 11,3 km/h (2 Bft) 95,74 %
31.01.2018 19:48 4,1 C 3,3 C 2,8 C 95 % 15 lf 999,7 hPa 0,0 l/m 0 min 0 min 0 W/m 9,0 km/h (2 Bft) 95,74 %
31.01.2018 19:50 4,1 C 3,3 C 2,8 C 95 % 15 lf 999,7 hPa 0,0 l/m 0 min 0 min 0 W/m 9,0 km/h (2 Bft) 95,65 %
31.01.2018 19:52 4,1 C 3,3 C 2,2 C 95 % 15 lf 999,7 hPa 0,0 l/m 0 min 0 min 0 W/m 13,5 km/h (3 Bft) 97,87 %
31.01.2018 19:54 4,1 C 3,3 C 2,2 C 95 % 15 lf 999,7 hPa 0,0 l/m 0 min 0 min 0 W/m 15,8 km/h (3 Bft) 97,87 %
31.01.2018 19:56 4,1 C 3,3 C 2,2 C 95 % 15 lf 999,7 hPa 0,0 l/m 0 min 0 min 0 W/m 9,0 km/h (2 Bft) 97,87 %
31.01.2018 19:58 4,0 C 3,3 C 2,2 C 95 % 15 lf 999,8 hPa 0,0 l/m 0 min 0 min 0 W/m 11,3 km/h (2 Bft) 97,87 %
31.01.2018 20:00 4,0 C 3,3 C 2,2 C 95 % 15 lf 999,9 hPa 0,0 l/m 0 min 0 min 0 W/m 11,3 km/h (2 Bft) 97,87 %
31.01.2018 20:02 4,0 C 3,3 C 2,8 C 95 % 15 lf 999,9 hPa 0,0 l/m 0 min 0 min 0 W/m 11,3 km/h (2 Bft) 95,65 %
31.01.2018 20:04 4,0 C 3,3 C 2,8 C 95 % 15 lf 999,9 hPa 0,0 l/m 0 min 0 min 0 W/m 9,0 km/h (2 Bft) 97,87 %
31.01.2018 20:06 4,0 C 3,3 C 2,8 C 95 % 15 lf 999,9 hPa 0,0 l/m 0 min 0 min 0 W/m 9,0 km/h (2 Bft) 95,74 %
31.01.2018 20:08 4,0 C 3,3 C 2,8 C 95 % 15 lf 999,9 hPa 0,0 l/m 0 min 0 min 0 W/m 9,0 km/h (2 Bft) 97,87 %
31.01.2018 20:10 4,0 C 3,3 C 2,8 C 95 % 15 lf 999,9 hPa 0,0 l/m 0 min 0 min 0 W/m 6,8 km/h (2 Bft) 97,87 %
31.01.2018 20:12 4,0 C 3,3 C 2,8 C 95 % 15 lf 1000,0 hPa 0,0 l/m 0 min 0 min 0 W/m 9,0 km/h (2 Bft) 100,00 %
31.01.2018 20:14 4,0 C 3,3 C 2,8 C 95 % 15 lf 1000,0 hPa 0,0 l/m 0 min 0 min 0 W/m 11,3 km/h (2 Bft) 97,83 %
31.01.2018 20:16 4,1 C 3,3 C 2,8 C 95 % 15 lf 1000,0 hPa 0,0 l/m 0 min 0 min 0 W/m 13,5 km/h (3 Bft) 97,87 %
31.01.2018 20:18 4,1 C 3,3 C 2,8 C 95 % 15 lf 999,9 hPa 0,0 l/m 0 min 0 min 0 W/m 13,5 km/h (3 Bft) 100,00 %
31.01.2018 20:20 4,1 C 3,3 C 2,8 C 95 % 15 lf 999,8 hPa 0,0 l/m 0 min 0 min 0 W/m 11,3 km/h (2 Bft) 100,00 %
31.01.2018 20:22 4,1 C 3,3 C 2,8 C 95 % 15 lf 999,8 hPa 0,0 l/m 0 min 0 min 0 W/m 11,3 km/h (2 Bft) 100,00 %
31.01.2018 20:24 4,0 C 3,3 C 2,2 C 95 % 15 lf 999,8 hPa 0,0 l/m 0 min 0 min 0 W/m 11,3 km/h (2 Bft) 97,83 %
31.01.2018 20:26 4,0 C 3,3 C 2,2 C 95 % 15 lf 999,7 hPa 0,0 l/m 0 min 0 min 0 W/m 15,8 km/h (3 Bft) 100,00 %
31.01.2018 20:28 4,0 C 3,3 C 2,2 C 95 % 15 lf 999,7 hPa 0,0 l/m 0 min 0 min 0 W/m 18,0 km/h (3 Bft) 100,00 %
31.01.2018 20:30 4,0 C 3,3 C 2,2 C 95 % 15 lf 999,7 hPa 0,0 l/m 0 min 0 min 0 W/m 13,5 km/h (3 Bft) 97,87 %
31.01.2018 20:32 4,0 C 3,3 C 2,2 C 95 % 15 lf 999,8 hPa 0,0 l/m 0 min 0 min 0 W/m 27,0 km/h (4 Bft) 100,00 %
31.01.2018 20:34 4,0 C 3,3 C 2,2 C 95 % 15 lf 999,7 hPa 0,0 l/m 0 min 0 min 0 W/m 27,0 km/h (4 Bft) 100,00 %
31.01.2018 20:36 4,0 C 3,3 C 2,2 C 95 % 15 lf 999,7 hPa 0,0 l/m 0 min 0 min 0 W/m 18,0 km/h (3 Bft) 100,00 %
31.01.2018 20:38 4,0 C 3,3 C 2,2 C 95 % 15 lf 999,6 hPa 0,0 l/m 0 min 0 min 0 W/m 15,8 km/h (3 Bft) 97,87 %
31.01.2018 20:40 4,0 C 3,3 C 2,2 C 95 % 15 lf 999,6 hPa 0,0 l/m 0 min 0 min 0 W/m 13,5 km/h (3 Bft) 100,00 %
31.01.2018 20:42 4,0 C 3,3 C 2,2 C 96 % 15 lf 999,6 hPa 0,0 l/m 0 min 0 min 0 W/m 13,5 km/h (3 Bft) 97,87 %
31.01.2018 20:44 3,9 C 3,3 C 2,2 C 96 % 15 lf 999,6 hPa 0,0 l/m 0 min 0 min 0 W/m 15,8 km/h (3 Bft) 100,00 %
31.01.2018 20:46 3,9 C 3,3 C 2,2 C 96 % 15 lf 999,5 hPa 0,0 l/m 0 min 0 min 0 W/m 15,8 km/h (3 Bft) 97,87 %
31.01.2018 20:48 3,9 C 3,3 C 2,2 C 96 % 15 lf 999,6 hPa 0,0 l/m 0 min 0 min 0 W/m 15,8 km/h (3 Bft) 97,83 %
31.01.2018 20:50 3,9 C 3,3 C 2,2 C 96 % 15 lf 999,6 hPa 0,0 l/m 0 min 0 min 0 W/m 11,3 km/h (2 Bft) 95,74 %
31.01.2018 20:52 3,9 C 3,3 C 2,2 C 96 % 15 lf 999,6 hPa 0,0 l/m 0 min 0 min 0 W/m 13,5 km/h (3 Bft) 100,00 %
31.01.2018 20:54 3,9 C 3,3 C 2,2 C 96 % 15 lf 999,6 hPa 0,0 l/m 0 min 0 min 0 W/m 15,8 km/h (3 Bft) 100,00 %
31.01.2018 20:56 3,9 C 3,3 C 2,2 C 96 % 15 lf 999,6 hPa 0,0 l/m 0 min 0 min 0 W/m 18,0 km/h (3 Bft) 100,00 %
31.01.2018 20:58 3,9 C 3,3 C 2,2 C 96 % 15 lf 999,6 hPa 0,0 l/m 0 min 0 min 0 W/m 18,0 km/h (3 Bft) 100,00 %
31.01.2018 21:00 3,9 C 3,3 C 2,2 C 96 % 15 lf 999,6 hPa 0,0 l/m 0 min 0 min 0 W/m 15,8 km/h (3 Bft) 100,00 %
31.01.2018 21:02 3,9 C 3,3 C 2,2 C 96 % 15 lf 999,6 hPa 0,0 l/m 0 min 0 min 0 W/m 24,8 km/h (4 Bft) 95,74 %
31.01.2018 21:04 3,9 C 3,3 C 2,2 C 96 % 15 lf 999,6 hPa 0,0 l/m 0 min 0 min 0 W/m 22,5 km/h (4 Bft) 100,00 %
31.01.2018 21:06 3,9 C 3,3 C 2,2 C 96 % 15 lf 999,6 hPa 0,0 l/m 0 min 0 min 0 W/m 20,3 km/h (4 Bft) 100,00 %
31.01.2018 21:08 3,9 C 3,3 C 2,2 C 96 % 15 lf 999,6 hPa 0,0 l/m 0 min 0 min 0 W/m 22,5 km/h (4 Bft) 100,00 %
31.01.2018 21:10 3,9 C 3,3 C 2,2 C 96 % 15 lf 999,6 hPa 0,0 l/m 0 min 0 min 0 W/m 18,0 km/h (3 Bft) 100,00 %
31.01.2018 21:12 3,9 C 3,3 C 2,2 C 96 % 15 lf 999,6 hPa 0,0 l/m 0 min 0 min 0 W/m 18,0 km/h (3 Bft) 100,00 %
31.01.2018 21:14 3,9 C 3,3 C 2,2 C 96 % 15 lf 999,6 hPa 0,0 l/m 0 min 0 min 0 W/m 27,0 km/h (4 Bft) 100,00 %
31.01.2018 21:16 3,9 C 3,3 C 2,8 C 96 % 15 lf 999,6 hPa 0,0 l/m 0 min 0 min 0 W/m 24,8 km/h (4 Bft) 95,74 %
31.01.2018 21:18 3,9 C 3,3 C 2,8 C 96 % 15 lf 999,6 hPa 0,0 l/m 0 min 0 min 0 W/m 22,5 km/h (4 Bft) 95,74 %
31.01.2018 21:20 3,9 C 3,3 C 2,8 C 96 % 15 lf 999,5 hPa 0,0 l/m 0 min 0 min 0 W/m 20,3 km/h (4 Bft) 93,62 %
31.01.2018 21:22 3,9 C 3,3 C 2,2 C 96 % 15 lf 999,5 hPa 0,0 l/m 0 min 0 min 0 W/m 18,0 km/h (3 Bft) 95,74 %
31.01.2018 21:24 3,9 C 3,3 C 2,2 C 96 % 15 lf 999,4 hPa 0,0 l/m 0 min 0 min 0 W/m 20,3 km/h (4 Bft) 97,83 %
31.01.2018 21:26 3,9 C 3,3 C 2,8 C 96 % 15 lf 999,4 hPa 0,0 l/m 0 min 0 min 0 W/m 20,3 km/h (4 Bft) 95,74 %
31.01.2018 21:28 3,9 C 3,3 C 2,8 C 96 % 15 lf 999,4 hPa 0,0 l/m 0 min 0 min 0 W/m 22,5 km/h (4 Bft) 91,49 %
31.01.2018 21:30 3,9 C 3,3 C 2,8 C 96 % 15 lf 999,4 hPa 0,0 l/m 0 min 0 min 0 W/m 15,8 km/h (3 Bft) 93,62 %
31.01.2018 21:32 4,0 C 3,3 C 2,8 C 96 % 15 lf 999,4 hPa 0,0 l/m 0 min 0 min 0 W/m 13,5 km/h (3 Bft) 93,62 %
31.01.2018 21:34 4,0 C 3,3 C 2,8 C 96 % 15 lf 999,4 hPa 0,0 l/m 0 min 0 min 0 W/m 18,0 km/h (3 Bft) 93,48 %
31.01.2018 21:36 4,0 C 3,3 C 2,8 C 96 % 15 lf 999,4 hPa 0,0 l/m 0 min 0 min 0 W/m 29,3 km/h (5 Bft) 95,74 %
31.01.2018 21:38 4,0 C 3,3 C 2,8 C 96 % 15 lf 999,4 hPa 0,0 l/m 0 min 0 min 0 W/m 24,8 km/h (4 Bft) 93,62 %
31.01.2018 21:40 4,0 C 3,3 C 2,8 C 96 % 15 lf 999,4 hPa 0,0 l/m 0 min 0 min 0 W/m 18,0 km/h (3 Bft) 93,62 %
31.01.2018 21:42 4,0 C 3,3 C 2,8 C 96 % 15 lf 999,5 hPa 0,0 l/m 0 min 0 min 0 W/m 22,5 km/h (4 Bft) 93,62 %
31.01.2018 21:44 4,0 C 3,3 C 2,8 C 96 % 15 lf 999,4 hPa 0,0 l/m 0 min 0 min 0 W/m 15,8 km/h (3 Bft) 93,62 %
31.01.2018 21:46 4,0 C 3,3 C 2,2 C 96 % 15 lf 999,5 hPa 0,0 l/m 0 min 0 min 0 W/m 24,8 km/h (4 Bft) 93,48 %
31.01.2018 21:48 4,0 C 3,3 C 2,8 C 96 % 15 lf 999,5 hPa 0,0 l/m 0 min 0 min 0 W/m 20,3 km/h (4 Bft) 91,49 %
31.01.2018 21:50 4,0 C 3,3 C 2,8 C 96 % 15 lf 999,6 hPa 0,0 l/m 0 min 0 min 0 W/m 18,0 km/h (3 Bft) 93,62 %
31.01.2018 21:52 4,0 C 3,3 C 2,8 C 96 % 15 lf 999,5 hPa 0,0 l/m 0 min 0 min 0 W/m 20,3 km/h (4 Bft) 93,62 %
31.01.2018 21:54 4,0 C 3,3 C 2,8 C 96 % 15 lf 999,5 hPa 0,0 l/m 0 min 0 min 0 W/m 22,5 km/h (4 Bft) 89,36 %
31.01.2018 21:56 4,0 C 3,3 C 2,8 C 96 % 15 lf 999,4 hPa 0,0 l/m 0 min 0 min 0 W/m 15,8 km/h (3 Bft) 85,11 %
31.01.2018 21:58 4,0 C 3,3 C 2,8 C 96 % 14 lf 999,4 hPa 0,0 l/m 0 min 0 min 0 W/m 27,0 km/h (4 Bft) 89,13 %
31.01.2018 22:00 4,0 C 3,9 C 2,8 C 96 % 14 lf 999,4 hPa 0,0 l/m 0 min 0 min 0 W/m 22,5 km/h (4 Bft) 89,36 %
31.01.2018 22:02 4,0 C 3,3 C 2,8 C 96 % 14 lf 999,5 hPa 0,0 l/m 0 min 0 min 0 W/m 22,5 km/h (4 Bft) 87,23 %
31.01.2018 22:04 4,1 C 3,3 C 2,8 C 96 % 14 lf 999,4 hPa 0,0 l/m 0 min 0 min 0 W/m 15,8 km/h (3 Bft) 95,74 %
31.01.2018 22:06 4,1 C 3,3 C 2,8 C 96 % 14 lf 999,4 hPa 0,0 l/m 0 min 0 min 0 W/m 18,0 km/h (3 Bft) 93,62 %
31.01.2018 22:08 4,1 C 3,3 C 2,8 C 96 % 14 lf 999,4 hPa 0,0 l/m 0 min 0 min 0 W/m 24,8 km/h (4 Bft) 93,62 %
31.01.2018 22:10 4,1 C 3,3 C 2,8 C 96 % 14 lf 999,4 hPa 0,0 l/m 0 min 0 min 0 W/m 18,0 km/h (3 Bft) 97,83 %
31.01.2018 22:12 4,1 C 3,3 C 2,8 C 96 % 13 lf 999,4 hPa 0,0 l/m 0 min 0 min 0 W/m 20,3 km/h (4 Bft) 95,74 %
31.01.2018 22:14 4,1 C 3,3 C 2,8 C 96 % 13 lf 999,5 hPa 0,0 l/m 0 min 0 min 0 W/m 18,0 km/h (3 Bft) 95,74 %
31.01.2018 22:16 4,1 C 3,3 C 2,8 C 96 % 13 lf 999,5 hPa 0,0 l/m 0 min 0 min 0 W/m 18,0 km/h (3 Bft) 97,92 %
31.01.2018 22:18 4,1 C 3,3 C 2,8 C 96 % 13 lf 999,6 hPa 0,0 l/m 0 min 0 min 0 W/m 15,8 km/h (3 Bft) 97,87 %
31.01.2018 22:20 4,1 C 3,3 C 2,8 C 96 % 13 lf 999,5 hPa 0,0 l/m 0 min 0 min 0 W/m 18,0 km/h (3 Bft) 97,87 %
31.01.2018 22:22 4,1 C 3,3 C 2,8 C 96 % 13 lf 999,5 hPa 0,0 l/m 0 min 0 min 0 W/m 15,8 km/h (3 Bft) 95,65 %
31.01.2018 22:24 4,1 C 3,3 C 2,8 C 96 % 12 lf 999,4 hPa 0,0 l/m 0 min 0 min 0 W/m 22,5 km/h (4 Bft) 97,87 %
31.01.2018 22:26 4,1 C 3,3 C 2,8 C 96 % 13 lf 999,4 hPa 0,0 l/m 0 min 0 min 0 W/m 20,3 km/h (4 Bft) 95,74 %
31.01.2018 22:28 4,1 C 3,3 C 2,8 C 96 % 13 lf 999,4 hPa 0,0 l/m 0 min 0 min 0 W/m 13,5 km/h (3 Bft) 97,87 %
31.01.2018 22:30 4,1 C 3,3 C 2,2 C 96 % 12 lf 999,5 hPa 0,0 l/m 0 min 0 min 0 W/m 22,5 km/h (4 Bft) 95,74 %
31.01.2018 22:32 4,1 C 3,3 C 2,2 C 96 % 12 lf 999,4 hPa 0,0 l/m 0 min 0 min 0 W/m 24,8 km/h (4 Bft) 97,83 %
31.01.2018 22:34 4,1 C 3,3 C 2,2 C 96 % 11 lf 999,5 hPa 0,0 l/m 0 min 0 min 0 W/m 24,8 km/h (4 Bft) 97,87 %
31.01.2018 22:36 4,1 C 3,3 C 2,2 C 96 % 11 lf 999,5 hPa 0,0 l/m 0 min 0 min 0 W/m 18,0 km/h (3 Bft) 97,87 %
31.01.2018 22:38 4,1 C 3,3 C 2,2 C 96 % 10 lf 999,5 hPa 0,0 l/m 0 min 0 min 0 W/m 20,3 km/h (4 Bft) 97,87 %
31.01.2018 22:40 4,1 C 3,3 C 2,2 C 96 % 10 lf 999,4 hPa 0,0 l/m 0 min 0 min 0 W/m 22,5 km/h (4 Bft) 95,74 %
31.01.2018 22:42 4,1 C 3,3 C 2,2 C 96 % 10 lf 999,4 hPa 0,0 l/m 0 min 0 min 0 W/m 18,0 km/h (3 Bft) 93,62 %
31.01.2018 22:44 4,1 C 3,3 C 2,2 C 96 % 9 lf 999,4 hPa 0,0 l/m 0 min 0 min 0 W/m 13,5 km/h (3 Bft) 97,83 %
31.01.2018 22:46 4,1 C 3,3 C 2,2 C 96 % 9 lf 999,4 hPa 0,0 l/m 0 min 0 min 0 W/m 15,8 km/h (3 Bft) 93,62 %
31.01.2018 22:48 4,0 C 3,3 C 2,2 C 95 % 9 lf 999,3 hPa 0,0 l/m 0 min 0 min 0 W/m 15,8 km/h (3 Bft) 97,87 %
31.01.2018 22:50 4,0 C 3,3 C 2,2 C 95 % 8 lf 999,1 hPa 0,0 l/m 0 min 0 min 0 W/m 11,3 km/h (2 Bft) 95,74 %
31.01.2018 22:52 4,0 C 3,3 C 2,2 C 95 % 7 lf 999,1 hPa 0,0 l/m 0 min 0 min 0 W/m 15,8 km/h (3 Bft) 95,74 %
31.01.2018 22:54 4,0 C 3,3 C 2,2 C 95 % 7 lf 999,2 hPa 0,0 l/m 0 min 0 min 0 W/m 20,3 km/h (4 Bft) 97,87 %
31.01.2018 22:56 4,0 C 3,3 C 2,2 C 95 % 6 lf 999,2 hPa 0,0 l/m 0 min 0 min 0 W/m 18,0 km/h (3 Bft) 97,83 %
31.01.2018 22:58 4,0 C 3,3 C 2,2 C 95 % 6 lf 999,3 hPa 0,0 l/m 0 min 0 min 0 W/m 13,5 km/h (3 Bft) 95,74 %
31.01.2018 23:00 3,9 C 3,3 C 2,2 C 95 % 5 lf 999,3 hPa 0,0 l/m 0 min 0 min 0 W/m 15,8 km/h (3 Bft) 95,74 %
31.01.2018 23:02 3,9 C 3,3 C 2,2 C 95 % 4 lf 999,3 hPa 0,0 l/m 0 min 0 min 0 W/m 20,3 km/h (4 Bft) 97,87 %
31.01.2018 23:04 3,9 C 3,3 C 2,2 C 95 % 4 lf 999,3 hPa 0,0 l/m 0 min 0 min 0 W/m 22,5 km/h (4 Bft) 97,87 %
31.01.2018 23:06 3,9 C 3,3 C 2,2 C 95 % 4 lf 999,3 hPa 0,0 l/m 0 min 0 min 0 W/m 29,3 km/h (5 Bft) 100,00 %
31.01.2018 23:08 3,9 C 3,3 C 2,2 C 95 % 4 lf 999,3 hPa 0,0 l/m 0 min 0 min 0 W/m 20,3 km/h (4 Bft) 95,65 %
31.01.2018 23:10 3,9 C 3,3 C 2,2 C 95 % 4 lf 999,3 hPa 0,0 l/m 0 min 0 min 0 W/m 24,8 km/h (4 Bft) 100,00 %
31.01.2018 23:12 3,9 C 3,3 C 2,2 C 95 % 4 lf 999,3 hPa 0,0 l/m 0 min 0 min 0 W/m 18,0 km/h (3 Bft) 97,87 %
31.01.2018 23:14 3,9 C 3,3 C 2,2 C 95 % 3 lf 999,3 hPa 0,0 l/m 0 min 0 min 0 W/m 18,0 km/h (3 Bft) 95,74 %
31.01.2018 23:16 3,9 C 3,3 C 2,2 C 95 % 3 lf 999,4 hPa 0,0 l/m 0 min 0 min 0 W/m 13,5 km/h (3 Bft) 100,00 %
31.01.2018 23:18 3,9 C 3,3 C 2,2 C 95 % 3 lf 999,3 hPa 0,0 l/m 0 min 0 min 0 W/m 20,3 km/h (4 Bft) 100,00 %
31.01.2018 23:20 3,8 C 3,3 C 2,2 C 95 % 3 lf 999,3 hPa 0,0 l/m 0 min 0 min 0 W/m 20,3 km/h (4 Bft) 97,83 %
31.01.2018 23:22 3,8 C 3,3 C 1,7 C 95 % 3 lf 999,3 hPa 0,0 l/m 0 min 0 min 0 W/m 20,3 km/h (4 Bft) 100,00 %
31.01.2018 23:24 3,8 C 2,8 C 1,7 C 95 % 2 lf 999,4 hPa 0,0 l/m 0 min 0 min 0 W/m 27,0 km/h (4 Bft) 97,87 %
31.01.2018 23:26 3,8 C 2,8 C 1,7 C 95 % 2 lf 999,5 hPa 0,0 l/m 0 min 0 min 0 W/m 11,3 km/h (2 Bft) 97,87 %
31.01.2018 23:28 3,8 C 2,8 C 1,7 C 95 % 2 lf 999,5 hPa 0,0 l/m 0 min 0 min 0 W/m 27,0 km/h (4 Bft) 97,92 %
31.01.2018 23:30 3,8 C 2,8 C 1,7 C 95 % 2 lf 999,5 hPa 0,0 l/m 0 min 0 min 0 W/m 22,5 km/h (4 Bft) 97,87 %
31.01.2018 23:32 3,7 C 2,8 C 1,7 C 94 % 1 lf 999,4 hPa 0,0 l/m 0 min 0 min 0 W/m 20,3 km/h (4 Bft) 95,65 %
31.01.2018 23:34 3,7 C 2,8 C 1,7 C 94 % 1 lf 999,4 hPa 0,0 l/m 0 min 0 min 0 W/m 20,3 km/h (4 Bft) 97,87 %
31.01.2018 23:36 3,7 C 2,8 C 1,7 C 94 % 1 lf 999,5 hPa 0,0 l/m 0 min 0 min 0 W/m 20,3 km/h (4 Bft) 97,87 %
31.01.2018 23:38 3,7 C 2,8 C 1,7 C 94 % 1 lf 999,4 hPa 0,0 l/m 0 min 0 min 0 W/m 22,5 km/h (4 Bft) 95,74 %
31.01.2018 23:40 3,7 C 2,8 C 1,7 C 94 % 0 lf 999,4 hPa 0,0 l/m 0 min 0 min 0 W/m 18,0 km/h (3 Bft) 97,87 %
31.01.2018 23:42 3,7 C 2,8 C 1,7 C 94 % 0 lf 999,4 hPa 0,0 l/m 0 min 0 min 0 W/m 15,8 km/h (3 Bft) 95,65 %
31.01.2018 23:44 3,7 C 2,8 C 1,7 C 94 % 0 lf 999,4 hPa 0,0 l/m 0 min 0 min 0 W/m 22,5 km/h (4 Bft) 95,74 %
31.01.2018 23:46 3,6 C 2,8 C 1,7 C 94 % 0 lf 999,4 hPa 0,0 l/m 0 min 0 min 0 W/m 15,8 km/h (3 Bft) 95,74 %
31.01.2018 23:48 3,6 C 2,8 C 1,1 C 94 % 0 lf 999,4 hPa 0,0 l/m 0 min 0 min 0 W/m 11,3 km/h (2 Bft) 97,87 %
31.01.2018 23:50 3,6 C 2,8 C 1,1 C 94 % 0 lf 999,5 hPa 0,0 l/m 0 min 0 min 0 W/m 15,8 km/h (3 Bft) 97,87 %
31.01.2018 23:52 3,6 C 2,8 C 1,7 C 94 % 0 lf 999,5 hPa 0,0 l/m 0 min 0 min 0 W/m 24,8 km/h (4 Bft) 95,74 %
31.01.2018 23:54 3,6 C 2,8 C 1,1 C 94 % 0 lf 999,6 hPa 0,0 l/m 0 min 0 min 0 W/m 9,0 km/h (2 Bft) 95,65 %
31.01.2018 23:56 3,5 C 2,8 C 1,1 C 94 % 0 lf 999,6 hPa 0,0 l/m 0 min 0 min 0 W/m 13,5 km/h (3 Bft) 95,74 %
31.01.2018 23:58 3,5 C 2,8 C 1,1 C 94 % 0 lf 999,5 hPa 0,0 l/m 0 min 0 min 0 W/m 18,0 km/h (3 Bft) 95,74 %
_ Min-Zeit 23:56 23:24 23:48 17:26 00:00 22:50 - - - - 01:00 21:56
Minimum _ 3,5 C 2,8 C 1,1 C 89 % 0 lf 999,1 hPa - - - - 6,8 km/h (2 Bft) 85,11 %
_ Max-Zeit 10:46 10:32 05:08 04:05 03:42 00:00 02:42 00:00 06:08 10:38 13:00 00:00
Maximum _ 9,7 C 10,0 C 7,8 C 98 % 15 lf 1018,6 hPa 0,2 l/m 0 min 4 min 88 W/m 60,8 km/h
SW (7 Bft)
100,00 %
Durchschnitt _ 7,0 C 6,3 C 5,3 C 94 % 11 lf 1006,1 hPa #7,8 l/m #0 min. #13:29 h 36 W/m 27,2 km/h (4 Bft) 96,57 %
© 2018 W. Hausmann